HVN005 VVNB-EDDM

Flight info

Callsign HVN005
Flight time 11h 12m
Altitude 34000
Route HUVAN3A HUVAN W21 BQ B214 AKSAG B465 CEA R460 LKN M890 SULOM A466 JHANG/N0498F360 A466 DI N644 LEMOD A909 RODAR N644 LEYLA/N0495F380 N644 TETRO M10 SARPI UM10 GOKPA UL746 ODERO DCT OPT DCT SOKRU DCT MOPUG DCT SUNIS DCT AMADI Q113 NAPSA NAPSA1B
Aircraft A359/H-SDE2E3GHIJ3J4J5LM1ORWXY/LB1D1

Departure

Time 2026-05-06 22:47
Airport Noi Bai International Airport (VVNB)

Arrival

Time 2026-05-07 09:59
Airport Munich Airport (EDDM)
Time Latitude Longitude Altitude Speed Heading
2026-05-06 22:46 21.22448 105.78712 52 ft 0 kts 106°
2026-05-06 22:46 21.22442 105.78735 52 ft 20 kts 107°
2026-05-06 22:46 21.22327 105.79133 54 ft 90 kts 107°
2026-05-06 22:47 21.22075 105.80000 53 ft 151 kts 107°
2026-05-06 22:47 21.21718 105.81247 247 ft 187 kts 106°
2026-05-06 22:47 21.21359 105.82528 1149 ft 174 kts 107°
2026-05-06 22:47 21.21008 105.83826 1628 ft 193 kts 109°
2026-05-06 22:48 21.20616 105.85259 1839 ft 206 kts 110°
2026-05-06 22:48 21.20202 105.86762 2085 ft 217 kts 110°
2026-05-06 22:48 21.19755 105.88373 2214 ft 234 kts 109°
2026-05-06 22:48 21.19274 105.90105 2398 ft 250 kts 109°
2026-05-06 22:49 21.18773 105.91916 2767 ft 256 kts 109°
2026-05-06 22:49 21.18261 105.93765 3191 ft 260 kts 109°
2026-05-06 22:49 21.17731 105.95631 3617 ft 263 kts 111°
2026-05-06 22:49 21.16882 105.97363 3999 ft 264 kts 132°
2026-05-06 22:50 21.15436 105.98548 4357 ft 264 kts 159°
2026-05-06 22:50 21.13644 105.98915 4726 ft 265 kts 182°
2026-05-06 22:50 21.11798 105.98763 5130 ft 267 kts 188°
2026-05-06 22:50 21.09941 105.98526 5527 ft 271 kts 188°
2026-05-06 22:51 21.08060 105.98287 5933 ft 274 kts 189°
2026-05-06 22:51 21.06156 105.98055 6352 ft 277 kts 189°
2026-05-06 22:51 21.04232 105.97828 6755 ft 279 kts 189°
2026-05-06 22:51 21.02290 105.97602 7143 ft 283 kts 189°
2026-05-06 22:52 21.00350 105.97379 7546 ft 285 kts 189°
2026-05-06 22:52 20.98377 105.97111 7969 ft 286 kts 194°
2026-05-06 22:52 20.96553 105.96322 8399 ft 283 kts 218°
2026-05-06 22:52 20.95247 105.94782 8796 ft 280 kts 244°
2026-05-06 22:53 20.94463 105.92876 9225 ft 281 kts 251°
2026-05-06 22:53 20.93784 105.90904 9677 ft 284 kts 251°
2026-05-06 22:53 20.93105 105.88913 10042 ft 289 kts 251°
2026-05-06 22:53 20.92395 105.86859 10208 ft 301 kts 251°
2026-05-06 22:54 20.91647 105.84715 10380 ft 313 kts 251°
2026-05-06 22:54 20.90868 105.82498 10530 ft 324 kts 250°
2026-05-06 22:54 20.90059 105.80203 10690 ft 335 kts 250°
2026-05-06 22:54 20.89298 105.77807 10825 ft 345 kts 257°
2026-05-06 22:55 20.89108 105.75227 10943 ft 354 kts 276°
2026-05-06 22:55 20.89763 105.72670 11082 ft 363 kts 292°
2026-05-06 22:55 20.90803 105.70172 11214 ft 372 kts 294°
2026-05-06 22:55 20.91906 105.67641 11424 ft 378 kts 294°
2026-05-06 22:56 20.93017 105.65077 11708 ft 381 kts 294°
2026-05-06 22:56 20.94127 105.62497 12022 ft 384 kts 294°
2026-05-06 22:56 20.95240 105.59893 12299 ft 387 kts 294°
2026-05-06 22:56 20.96358 105.57268 12620 ft 388 kts 294°
2026-05-06 22:57 20.97466 105.54662 12937 ft 390 kts 294°
2026-05-06 22:57 20.98592 105.52010 13244 ft 392 kts 294°
2026-05-06 22:57 20.99724 105.49343 13563 ft 394 kts 294°
2026-05-06 22:57 21.00858 105.46667 13840 ft 396 kts 294°
2026-05-06 22:58 21.02075 105.44017 14109 ft 398 kts 298°
2026-05-06 22:58 21.03486 105.41462 14387 ft 400 kts 301°
2026-05-06 22:58 21.04945 105.38921 14656 ft 401 kts 301°
2026-05-06 22:58 21.06411 105.36374 14878 ft 403 kts 301°
2026-05-06 22:59 21.07878 105.33819 15147 ft 404 kts 301°
2026-05-06 22:59 21.09352 105.31249 15440 ft 405 kts 301°
2026-05-06 22:59 21.10826 105.28674 15704 ft 407 kts 301°
2026-05-06 22:59 21.12309 105.26082 15911 ft 409 kts 301°
2026-05-06 23:00 21.13799 105.23477 16169 ft 410 kts 301°
2026-05-06 23:00 21.15292 105.20863 16450 ft 411 kts 301°
2026-05-06 23:00 21.16786 105.18247 16718 ft 412 kts 301°
2026-05-06 23:00 21.18284 105.15623 16973 ft 413 kts 301°
2026-05-06 23:01 21.19676 105.12920 17217 ft 414 kts 294°
2026-05-06 23:01 21.20580 105.10034 17439 ft 415 kts 282°
2026-05-06 23:01 21.20946 105.06958 17699 ft 416 kts 274°
2026-05-06 23:01 21.21077 105.03850 17948 ft 418 kts 271°
2026-05-06 23:02 21.21098 105.00735 18198 ft 419 kts 270°
2026-05-06 23:02 21.21077 104.97614 18400 ft 420 kts 270°
2026-05-06 23:02 21.21053 104.94484 18608 ft 421 kts 270°
2026-05-06 23:02 21.21040 104.91342 18819 ft 422 kts 270°
2026-05-06 23:03 21.21043 104.88195 19075 ft 422 kts 270°
2026-05-06 23:03 21.21058 104.85052 19289 ft 422 kts 271°
2026-05-06 23:03 21.21079 104.81902 19478 ft 424 kts 271°
2026-05-06 23:03 21.21103 104.78737 19699 ft 424 kts 271°
2026-05-06 23:04 21.21128 104.75573 19913 ft 425 kts 271°
2026-05-06 23:04 21.21145 104.73466 20037 ft 426 kts 271°
2026-05-06 23:04 21.21168 104.70285 20220 ft 428 kts 271°
2026-05-06 23:04 21.21191 104.67100 20435 ft 429 kts 271°
2026-05-06 23:05 21.21213 104.63898 20675 ft 430 kts 271°
2026-05-06 23:05 21.21234 104.60693 20866 ft 431 kts 271°
2026-05-06 23:05 21.21254 104.57472 21075 ft 432 kts 271°
2026-05-06 23:05 21.21273 104.54244 21284 ft 433 kts 271°
2026-05-06 23:06 21.21293 104.51014 21498 ft 434 kts 271°
2026-05-06 23:06 21.21311 104.47778 21727 ft 435 kts 271°
2026-05-06 23:06 21.21329 104.44531 21932 ft 436 kts 271°
2026-05-06 23:06 21.21345 104.41274 22157 ft 437 kts 271°
2026-05-06 23:07 21.21361 104.38047 22373 ft 439 kts 271°
2026-05-06 23:07 21.21378 104.34773 22584 ft 440 kts 271°
2026-05-06 23:07 21.21394 104.31495 22800 ft 441 kts 271°
2026-05-06 23:07 21.21410 104.28204 23017 ft 442 kts 271°
2026-05-06 23:08 21.21425 104.24903 23219 ft 444 kts 271°
2026-05-06 23:08 21.21440 104.21585 23442 ft 445 kts 271°
2026-05-06 23:08 21.21453 104.18256 23553 ft 448 kts 271°
2026-05-06 23:08 21.21466 104.14914 23754 ft 448 kts 271°
2026-05-06 23:09 21.21478 104.11571 23963 ft 449 kts 271°
2026-05-06 23:09 21.21489 104.08223 24134 ft 450 kts 271°
2026-05-06 23:09 21.21466 104.04860 24294 ft 452 kts 269°
2026-05-06 23:09 21.21237 104.01492 24467 ft 454 kts 266°
2026-05-06 23:10 21.20944 103.98123 24660 ft 455 kts 265°
2026-05-06 23:10 21.20617 103.94751 24852 ft 456 kts 265°
2026-05-06 23:10 21.20272 103.91368 25049 ft 457 kts 265°
2026-05-06 23:10 21.19920 103.87978 25259 ft 458 kts 265°
2026-05-06 23:11 21.19566 103.84583 25455 ft 459 kts 265°
2026-05-06 23:11 21.19211 103.81169 25627 ft 461 kts 265°
2026-05-06 23:11 21.18857 103.77749 25826 ft 463 kts 265°
2026-05-06 23:11 21.18505 103.74319 26023 ft 464 kts 265°
2026-05-06 23:12 21.18151 103.70874 26251 ft 465 kts 265°
2026-05-06 23:12 21.17801 103.67484 26484 ft 466 kts 265°
2026-05-06 23:12 21.17444 103.64025 26705 ft 467 kts 265°
2026-05-06 23:12 21.17085 103.60548 26915 ft 469 kts 265°
2026-05-06 23:13 21.16726 103.57071 27150 ft 470 kts 265°
2026-05-06 23:13 21.16364 103.53583 27411 ft 471 kts 265°
2026-05-06 23:13 21.16003 103.50098 27651 ft 472 kts 265°
2026-05-06 23:13 21.15638 103.46596 27921 ft 473 kts 265°
2026-05-06 23:14 21.15273 103.43097 28198 ft 473 kts 265°
2026-05-06 23:14 21.14906 103.39587 28365 ft 475 kts 265°
2026-05-06 23:14 21.14537 103.36070 28575 ft 476 kts 265°
2026-05-06 23:14 21.14167 103.32542 28784 ft 477 kts 265°
2026-05-06 23:15 21.13796 103.29009 29001 ft 478 kts 265°
2026-05-06 23:15 21.13423 103.25466 29183 ft 479 kts 265°
2026-05-06 23:15 21.13047 103.21913 29378 ft 480 kts 265°
2026-05-06 23:15 21.12670 103.18351 29553 ft 481 kts 265°
2026-05-06 23:16 21.12292 103.14789 29801 ft 481 kts 265°
2026-05-06 23:16 21.11913 103.11227 30061 ft 480 kts 265°
2026-05-06 23:16 21.11536 103.07683 30326 ft 478 kts 265°
2026-05-06 23:16 21.11159 103.04152 30516 ft 478 kts 265°
2026-05-06 23:17 21.10781 103.00618 30685 ft 478 kts 264°
2026-05-06 23:17 21.10403 102.97081 30830 ft 478 kts 264°
2026-05-06 23:17 21.10030 102.93586 31008 ft 478 kts 264°
2026-05-06 23:17 21.09651 102.90043 31185 ft 478 kts 264°
2026-05-06 23:18 21.09269 102.86508 31367 ft 478 kts 264°
2026-05-06 23:18 21.08886 102.82977 31548 ft 477 kts 264°
2026-05-06 23:18 21.08503 102.79449 31717 ft 477 kts 264°
2026-05-06 23:18 21.08120 102.75928 31865 ft 477 kts 264°
2026-05-06 23:19 21.07737 102.72398 32016 ft 477 kts 264°
2026-05-06 23:19 21.07354 102.68878 32172 ft 477 kts 264°
2026-05-06 23:19 21.06968 102.65338 32326 ft 477 kts 264°
2026-05-06 23:19 21.06583 102.61815 32472 ft 477 kts 264°
2026-05-06 23:20 21.06197 102.58284 32621 ft 476 kts 264°
2026-05-06 23:20 21.05812 102.54765 32778 ft 476 kts 264°
2026-05-06 23:20 21.05430 102.51284 32908 ft 476 kts 264°
2026-05-06 23:20 21.05037 102.47715 33055 ft 476 kts 264°
2026-05-06 23:21 21.04654 102.44243 33192 ft 476 kts 264°
2026-05-06 23:21 21.04265 102.40718 33334 ft 476 kts 264°
2026-05-06 23:21 21.03876 102.37204 33526 ft 474 kts 263°
2026-05-06 23:21 21.03487 102.33704 33676 ft 473 kts 263°
2026-05-06 23:22 21.03098 102.30208 33808 ft 473 kts 263°
2026-05-06 23:22 21.02317 102.23203 33929 ft 475 kts 263°
2026-05-06 23:23 21.01527 102.16137 33933 ft 480 kts 263°
2026-05-06 23:23 21.00728 102.09032 33926 ft 480 kts 263°
2026-05-06 23:24 20.99929 102.01944 33939 ft 480 kts 263°
2026-05-06 23:24 20.99126 101.94848 33944 ft 480 kts 263°
2026-05-06 23:25 20.98321 101.87758 33931 ft 480 kts 263°
2026-05-06 23:25 20.97513 101.80668 33930 ft 480 kts 263°
2026-05-06 23:26 20.96707 101.73626 33939 ft 480 kts 263°
2026-05-06 23:26 20.95908 101.66676 33939 ft 480 kts 263°
2026-05-06 23:27 20.95093 101.59603 33944 ft 479 kts 263°
2026-05-06 23:27 20.94276 101.52540 33946 ft 478 kts 263°
2026-05-06 23:28 20.93456 101.45481 33944 ft 479 kts 263°
2026-05-06 23:28 20.92632 101.38417 33941 ft 478 kts 263°
2026-05-06 23:29 20.91806 101.31352 33944 ft 478 kts 263°
2026-05-06 23:29 20.90978 101.24297 33947 ft 478 kts 263°
2026-05-06 23:30 20.90152 101.17285 33961 ft 478 kts 263°
2026-05-06 23:30 20.89317 101.10224 33955 ft 478 kts 263°
2026-05-06 23:31 20.88481 101.03176 33950 ft 478 kts 263°
2026-05-06 23:31 20.87641 100.96125 33969 ft 478 kts 263°
2026-05-06 23:32 20.86797 100.89074 33954 ft 478 kts 263°
2026-05-06 23:32 20.85951 100.82021 33948 ft 478 kts 263°
2026-05-06 23:33 20.85104 100.74976 33955 ft 478 kts 263°
2026-05-06 23:33 20.84252 100.67924 33952 ft 478 kts 263°
2026-05-06 23:34 20.83397 100.60874 33964 ft 478 kts 263°
2026-05-06 23:34 20.82540 100.53828 33953 ft 478 kts 262°
2026-05-06 23:35 20.82198 100.46754 33958 ft 478 kts 274°
2026-05-06 23:35 20.83497 100.39791 33954 ft 479 kts 284°
2026-05-06 23:36 20.85325 100.32937 33939 ft 480 kts 285°
2026-05-06 23:36 20.87228 100.26102 33956 ft 480 kts 285°
2026-05-06 23:37 20.89100 100.19301 33938 ft 480 kts 285°
2026-05-06 23:37 20.90960 100.12447 33956 ft 479 kts 285°
2026-05-06 23:38 20.92807 100.05600 33954 ft 479 kts 284°
2026-05-06 23:38 20.94650 99.98755 33942 ft 479 kts 284°
2026-05-06 23:39 20.96490 99.91911 33949 ft 478 kts 284°
2026-05-06 23:39 20.98329 99.85063 33955 ft 478 kts 284°
2026-05-06 23:40 21.00165 99.78214 33966 ft 478 kts 284°
2026-05-06 23:40 21.01983 99.71420 33974 ft 478 kts 284°
2026-05-06 23:41 21.03812 99.64574 33981 ft 478 kts 284°
2026-05-06 23:41 21.05636 99.57732 33978 ft 478 kts 284°
2026-05-06 23:42 21.07457 99.50892 33964 ft 478 kts 284°
2026-05-06 23:42 21.09276 99.44050 33973 ft 478 kts 284°
2026-05-06 23:43 21.11091 99.37208 33966 ft 477 kts 284°
2026-05-06 23:43 21.12905 99.30355 33962 ft 477 kts 284°
2026-05-06 23:44 21.14715 99.23509 33964 ft 477 kts 284°
2026-05-06 23:44 21.16522 99.16662 33970 ft 477 kts 284°
2026-05-06 23:45 21.18313 99.09864 33967 ft 477 kts 284°
2026-05-06 23:45 21.20114 99.03011 33965 ft 477 kts 284°
2026-05-06 23:46 21.21912 98.96160 33963 ft 478 kts 284°
2026-05-06 23:46 21.23708 98.89300 33956 ft 478 kts 284°
2026-05-06 23:47 21.25501 98.82449 33952 ft 476 kts 284°
2026-05-06 23:47 21.27287 98.75610 33942 ft 476 kts 284°
2026-05-06 23:48 21.29059 98.68812 33945 ft 476 kts 284°
2026-05-06 23:48 21.30836 98.61984 33936 ft 475 kts 284°
2026-05-06 23:49 21.32609 98.55153 33942 ft 475 kts 284°
2026-05-06 23:49 21.34378 98.48332 33942 ft 475 kts 284°
2026-05-06 23:50 21.36144 98.41503 33944 ft 475 kts 283°
2026-05-06 23:50 21.38791 98.31251 33954 ft 474 kts 284°
2026-05-06 23:51 21.40544 98.24444 33953 ft 473 kts 284°
2026-05-06 23:51 21.42293 98.17643 33962 ft 473 kts 284°
2026-05-06 23:52 21.43743 98.11991 33958 ft 473 kts 284°
2026-05-06 23:52 21.45488 98.05183 33957 ft 473 kts 284°
2026-05-06 23:53 21.47230 97.98375 33967 ft 473 kts 283°
2026-05-06 23:53 21.48968 97.91567 33966 ft 471 kts 284°
2026-05-06 23:54 21.50697 97.84786 33972 ft 470 kts 284°
2026-05-06 23:54 21.52419 97.78014 33972 ft 470 kts 283°
2026-05-06 23:55 21.54139 97.71239 33974 ft 470 kts 283°
2026-05-06 23:55 21.55856 97.64464 33973 ft 470 kts 283°
2026-05-06 23:56 21.57561 97.57726 33968 ft 470 kts 283°
2026-05-06 23:56 21.59274 97.50944 33970 ft 470 kts 283°
2026-05-06 23:57 21.60984 97.44162 33966 ft 470 kts 283°
2026-05-06 23:57 21.62693 97.37368 33964 ft 471 kts 283°
2026-05-06 23:58 21.64398 97.30580 33970 ft 470 kts 283°
2026-05-06 23:58 21.66102 97.23781 33949 ft 471 kts 283°
2026-05-06 23:59 21.67806 97.16971 33953 ft 472 kts 283°
2026-05-06 23:59 21.69512 97.10142 33948 ft 472 kts 283°
2026-05-07 00:00 21.71213 97.03320 33948 ft 472 kts 283°
2026-05-07 00:00 21.72909 96.96500 33941 ft 472 kts 283°
2026-05-07 00:01 21.74595 96.89713 33939 ft 472 kts 283°
2026-05-07 00:01 21.76288 96.82882 33935 ft 472 kts 283°
2026-05-07 00:02 21.77978 96.76052 33942 ft 472 kts 283°
2026-05-07 00:02 21.79665 96.69224 33937 ft 472 kts 283°
2026-05-07 00:03 21.81349 96.62392 33928 ft 472 kts 283°
2026-05-07 00:03 21.83030 96.55560 33927 ft 472 kts 283°
2026-05-07 00:04 21.84707 96.48728 33912 ft 472 kts 283°
2026-05-07 00:04 21.86381 96.41900 33912 ft 470 kts 282°
2026-05-07 00:05 21.88049 96.35085 33891 ft 470 kts 282°
2026-05-07 00:05 21.89703 96.28306 33892 ft 471 kts 282°
2026-05-07 00:06 21.91364 96.21486 33877 ft 471 kts 282°
2026-05-07 00:06 21.93001 96.14654 33879 ft 470 kts 280°
2026-05-07 00:07 21.93900 96.07710 33873 ft 468 kts 275°
2026-05-07 00:07 21.94537 96.00742 33862 ft 466 kts 274°
2026-05-07 00:08 21.95123 95.93794 33861 ft 466 kts 274°
2026-05-07 00:08 21.95711 95.86841 33862 ft 466 kts 274°
2026-05-07 00:09 21.96306 95.79886 33859 ft 466 kts 274°
2026-05-07 00:09 21.96898 95.72978 33862 ft 466 kts 274°
2026-05-07 00:10 21.97492 95.66020 33864 ft 465 kts 274°
2026-05-07 00:10 21.98082 95.59079 33867 ft 465 kts 274°
2026-05-07 00:11 21.98668 95.52136 33865 ft 465 kts 274°
2026-05-07 00:11 21.99251 95.45192 33865 ft 465 kts 274°
2026-05-07 00:12 21.99831 95.38251 33866 ft 465 kts 274°
2026-05-07 00:12 22.00408 95.31312 33868 ft 465 kts 273°
2026-05-07 00:13 22.00982 95.24375 33863 ft 464 kts 273°
2026-05-07 00:13 22.01549 95.17486 33868 ft 464 kts 273°
2026-05-07 00:14 22.02116 95.10554 33866 ft 464 kts 273°
2026-05-07 00:14 22.02680 95.03626 33872 ft 464 kts 273°
2026-05-07 00:15 22.03242 94.96690 33872 ft 464 kts 273°
2026-05-07 00:15 22.03800 94.89764 33877 ft 464 kts 273°
2026-05-07 00:16 22.04355 94.82835 33874 ft 464 kts 273°
2026-05-07 00:16 22.04908 94.75905 33877 ft 464 kts 273°
2026-05-07 00:17 22.05458 94.68966 33893 ft 464 kts 273°
2026-05-07 00:17 22.06004 94.62033 33891 ft 464 kts 273°
2026-05-07 00:18 22.06549 94.55096 33902 ft 464 kts 273°
2026-05-07 00:18 22.07090 94.48160 33893 ft 465 kts 273°
2026-05-07 00:19 22.07626 94.41253 33886 ft 465 kts 273°
2026-05-07 00:19 22.08163 94.34298 33894 ft 465 kts 272°
2026-05-07 00:20 22.08695 94.27352 33894 ft 465 kts 272°
2026-05-07 00:20 22.09225 94.20409 33889 ft 465 kts 272°
2026-05-07 00:21 22.09752 94.13467 33894 ft 464 kts 272°
2026-05-07 00:21 22.10275 94.06527 33908 ft 463 kts 272°
2026-05-07 00:22 22.10795 93.99596 33895 ft 463 kts 272°
2026-05-07 00:22 22.11308 93.92713 33923 ft 463 kts 272°
2026-05-07 00:23 22.11823 93.85779 33940 ft 463 kts 272°
2026-05-07 00:23 22.12335 93.78844 33951 ft 463 kts 272°
2026-05-07 00:24 22.12843 93.71924 33966 ft 462 kts 272°
2026-05-07 00:24 22.13344 93.65072 33971 ft 461 kts 272°
2026-05-07 00:25 22.13845 93.58163 33956 ft 461 kts 272°
2026-05-07 00:25 22.14339 93.51277 33946 ft 461 kts 272°
2026-05-07 00:26 22.14830 93.44388 33976 ft 460 kts 272°
2026-05-07 00:26 22.15320 93.37500 33985 ft 460 kts 272°
2026-05-07 00:27 22.15804 93.30661 33971 ft 461 kts 272°
2026-05-07 00:27 22.16293 93.23729 33967 ft 461 kts 272°
2026-05-07 00:28 22.16775 93.16834 33959 ft 461 kts 272°
2026-05-07 00:28 22.17254 93.09935 33956 ft 461 kts 272°
2026-05-07 00:29 22.17731 93.03041 33925 ft 461 kts 272°
2026-05-07 00:30 22.18673 92.89292 33920 ft 460 kts 272°
2026-05-07 00:30 22.19139 92.82394 33912 ft 461 kts 272°
2026-05-07 00:31 22.19604 92.75490 33919 ft 461 kts 272°
2026-05-07 00:31 22.20067 92.68589 33906 ft 460 kts 272°
2026-05-07 00:32 22.20521 92.61708 33896 ft 459 kts 272°
2026-05-07 00:32 22.20941 92.54832 33890 ft 459 kts 271°
2026-05-07 00:33 22.21350 92.48004 33900 ft 459 kts 271°
2026-05-07 00:33 22.21763 92.41112 33883 ft 459 kts 271°
2026-05-07 00:34 22.22176 92.34234 33889 ft 459 kts 271°
2026-05-07 00:34 22.22587 92.27355 33884 ft 459 kts 271°
2026-05-07 00:35 22.23052 92.20483 33882 ft 458 kts 272°
2026-05-07 00:35 22.23566 92.13625 33882 ft 458 kts 272°
2026-05-07 00:36 22.24069 92.06816 33879 ft 458 kts 272°
2026-05-07 00:36 22.24562 91.99966 33882 ft 458 kts 272°
2026-05-07 00:37 22.25048 91.93116 33875 ft 458 kts 272°
2026-05-07 00:37 22.25532 91.86263 33884 ft 457 kts 272°
2026-05-07 00:38 22.26055 91.79429 33884 ft 457 kts 274°
2026-05-07 00:38 22.26857 91.72598 33884 ft 458 kts 275°
2026-05-07 00:39 22.27714 91.65786 33882 ft 458 kts 275°
2026-05-07 00:39 22.28396 91.60116 33881 ft 458 kts 275°
2026-05-07 00:40 22.29187 91.53293 33879 ft 458 kts 274°
2026-05-07 00:40 22.29965 91.46475 33876 ft 457 kts 274°
2026-05-07 00:41 22.30738 91.39668 33876 ft 457 kts 274°
2026-05-07 00:41 22.31539 91.32863 33875 ft 457 kts 275°
2026-05-07 00:42 22.32393 91.26061 33879 ft 457 kts 275°
2026-05-07 00:42 22.33248 91.19247 33878 ft 457 kts 275°
2026-05-07 00:43 22.34091 91.12443 33878 ft 457 kts 275°
2026-05-07 00:43 22.34921 91.05681 33878 ft 458 kts 274°
2026-05-07 00:44 22.35754 90.98860 33880 ft 458 kts 274°
2026-05-07 00:44 22.36585 90.92037 33882 ft 458 kts 274°
2026-05-07 00:45 22.37413 90.85219 33880 ft 458 kts 274°
2026-05-07 00:45 22.38240 90.78388 33882 ft 458 kts 274°
2026-05-07 00:46 22.39063 90.71555 33881 ft 459 kts 274°
2026-05-07 00:46 22.39886 90.64707 33881 ft 460 kts 274°
2026-05-07 00:47 22.40706 90.57855 33879 ft 460 kts 274°
2026-05-07 00:47 22.41523 90.50999 33879 ft 460 kts 274°
2026-05-07 00:48 22.42333 90.44187 33881 ft 460 kts 274°
2026-05-07 00:48 22.43146 90.37321 33891 ft 460 kts 274°
2026-05-07 00:49 22.43955 90.30458 33881 ft 460 kts 274°
2026-05-07 00:49 22.44761 90.23597 33881 ft 460 kts 274°
2026-05-07 00:50 22.45565 90.16733 33878 ft 460 kts 274°
2026-05-07 00:50 22.46365 90.09869 33876 ft 460 kts 274°
2026-05-07 00:51 22.47161 90.03019 33875 ft 459 kts 274°
2026-05-07 00:51 22.47950 89.96206 33882 ft 459 kts 274°
2026-05-07 00:52 22.48740 89.89360 33879 ft 458 kts 274°
2026-05-07 00:52 22.49525 89.82524 33879 ft 458 kts 274°
2026-05-07 00:53 22.50309 89.75675 33878 ft 458 kts 273°
2026-05-07 00:53 22.51089 89.68832 33878 ft 458 kts 273°
2026-05-07 00:54 22.51867 89.61985 33881 ft 458 kts 273°
2026-05-07 00:54 22.52641 89.55139 33881 ft 458 kts 273°
2026-05-07 00:55 22.53412 89.48299 33880 ft 458 kts 273°
2026-05-07 00:55 22.54176 89.41497 33881 ft 458 kts 273°
2026-05-07 00:56 22.54941 89.34657 33878 ft 458 kts 273°
2026-05-07 00:56 22.55703 89.27817 33878 ft 458 kts 273°
2026-05-07 00:57 22.56463 89.20969 33879 ft 458 kts 273°
2026-05-07 00:57 22.57220 89.14116 33878 ft 459 kts 273°
2026-05-07 00:58 22.57975 89.07263 33875 ft 459 kts 273°
2026-05-07 00:58 22.58727 89.00407 33878 ft 459 kts 273°
2026-05-07 00:59 22.59928 88.90118 33879 ft 460 kts 276°
2026-05-07 01:00 22.61107 88.83301 33882 ft 461 kts 277°
2026-05-07 01:00 22.62332 88.76539 33881 ft 460 kts 277°
2026-05-07 01:01 22.63510 88.69730 33882 ft 460 kts 276°
2026-05-07 01:01 22.64651 88.62922 33882 ft 460 kts 276°
2026-05-07 01:02 22.65783 88.56099 33883 ft 460 kts 276°
2026-05-07 01:02 22.66924 88.49283 33884 ft 461 kts 278°
2026-05-07 01:03 22.69026 88.42683 33882 ft 470 kts 292°
2026-05-07 01:03 22.72309 88.36532 33883 ft 473 kts 296°
2026-05-07 01:04 22.75797 88.30489 33885 ft 473 kts 297°
2026-05-07 01:04 22.79307 88.24444 33881 ft 472 kts 296°
2026-05-07 01:05 22.82759 88.18442 33879 ft 472 kts 296°
2026-05-07 01:05 22.86218 88.12391 33885 ft 472 kts 296°
2026-05-07 01:06 22.89664 88.06346 33884 ft 471 kts 296°
2026-05-07 01:06 22.93112 88.00291 33886 ft 471 kts 296°
2026-05-07 01:07 22.96555 87.94240 33895 ft 471 kts 296°
2026-05-07 01:07 22.99998 87.88184 33894 ft 471 kts 296°
2026-05-07 01:08 23.03440 87.82122 33896 ft 471 kts 296°
2026-05-07 01:08 23.06858 87.76094 33897 ft 471 kts 296°
2026-05-07 01:09 23.10302 87.70015 33929 ft 471 kts 295°
2026-05-07 01:09 23.13701 87.64015 33900 ft 463 kts 295°
2026-05-07 01:10 23.17067 87.58059 33901 ft 461 kts 295°
2026-05-07 01:10 23.20422 87.52111 33897 ft 462 kts 295°
2026-05-07 01:11 23.23775 87.46159 33896 ft 461 kts 295°
2026-05-07 01:11 23.27124 87.40212 33892 ft 461 kts 295°
2026-05-07 01:12 23.30451 87.34297 33891 ft 461 kts 295°
2026-05-07 01:12 23.33802 87.28332 33901 ft 462 kts 295°
2026-05-07 01:13 23.37161 87.22344 33905 ft 463 kts 295°
2026-05-07 01:13 23.40518 87.16356 33925 ft 463 kts 295°
2026-05-07 01:14 23.43870 87.10372 33889 ft 461 kts 295°
2026-05-07 01:14 23.47208 87.04402 33902 ft 460 kts 295°
2026-05-07 01:15 23.50517 86.98487 33896 ft 460 kts 295°
2026-05-07 01:15 23.53853 86.92523 33904 ft 461 kts 295°
2026-05-07 01:16 23.57186 86.86558 33905 ft 460 kts 295°
2026-05-07 01:16 23.60529 86.80571 33901 ft 460 kts 295°
2026-05-07 01:17 23.63837 86.74645 33912 ft 460 kts 295°
2026-05-07 01:17 23.67159 86.68677 33910 ft 460 kts 295°
2026-05-07 01:18 23.70484 86.62694 33914 ft 460 kts 295°
2026-05-07 01:18 23.73802 86.56718 33917 ft 459 kts 294°
2026-05-07 01:19 23.77111 86.50757 33915 ft 458 kts 294°
2026-05-07 01:19 23.80409 86.44805 33923 ft 458 kts 294°
2026-05-07 01:20 23.83807 86.38957 33913 ft 461 kts 297°
2026-05-07 01:20 23.87506 86.33222 33928 ft 462 kts 298°
2026-05-07 01:21 23.91226 86.27480 33923 ft 462 kts 298°
2026-05-07 01:21 23.94897 86.21716 33924 ft 461 kts 297°
2026-05-07 01:22 23.98539 86.15941 33917 ft 461 kts 297°
2026-05-07 01:22 24.02176 86.10164 33953 ft 460 kts 297°
2026-05-07 01:23 24.05803 86.04394 33928 ft 460 kts 297°
2026-05-07 01:23 24.09423 85.98625 33917 ft 460 kts 297°
2026-05-07 01:24 24.13022 85.92887 33922 ft 460 kts 297°
2026-05-07 01:24 24.16640 85.87113 33923 ft 460 kts 297°
2026-05-07 01:25 24.20261 85.81327 33921 ft 460 kts 297°
2026-05-07 01:25 24.23874 85.75548 33918 ft 460 kts 297°
2026-05-07 01:26 24.27489 85.69758 33921 ft 460 kts 297°
2026-05-07 01:26 24.31097 85.63975 33925 ft 459 kts 297°
2026-05-07 01:27 24.34701 85.58190 33915 ft 460 kts 297°
2026-05-07 01:27 24.38284 85.52430 33919 ft 460 kts 297°
2026-05-07 01:28 24.41891 85.46627 33917 ft 460 kts 297°
2026-05-07 01:28 24.45498 85.40817 33915 ft 460 kts 297°
2026-05-07 01:29 24.48494 85.35986 33911 ft 461 kts 297°
2026-05-07 01:29 24.52099 85.30165 33909 ft 461 kts 297°
2026-05-07 01:30 24.55701 85.24344 33908 ft 461 kts 297°
2026-05-07 01:30 24.59303 85.18515 33906 ft 461 kts 297°
2026-05-07 01:31 24.62901 85.12686 33918 ft 461 kts 297°
2026-05-07 01:31 24.66500 85.06849 33887 ft 460 kts 297°
2026-05-07 01:32 24.70085 85.01027 33883 ft 459 kts 297°
2026-05-07 01:32 24.73566 84.95165 33884 ft 454 kts 292°
2026-05-07 01:33 24.76127 84.88889 33883 ft 448 kts 286°
2026-05-07 01:33 24.78380 84.82539 33884 ft 447 kts 285°
2026-05-07 01:34 24.80590 84.76141 33885 ft 447 kts 285°
2026-05-07 01:34 24.82804 84.69745 33887 ft 447 kts 285°
2026-05-07 01:35 24.85028 84.63347 33888 ft 448 kts 285°
2026-05-07 01:35 24.87260 84.56931 33889 ft 448 kts 285°
2026-05-07 01:36 24.89489 84.50516 33889 ft 448 kts 285°
2026-05-07 01:36 24.91716 84.44094 33897 ft 448 kts 285°
2026-05-07 01:37 24.93941 84.37666 33882 ft 449 kts 285°
2026-05-07 01:37 24.96168 84.31223 33881 ft 450 kts 285°
2026-05-07 01:38 24.98379 84.24816 33874 ft 450 kts 286°
2026-05-07 01:38 25.00602 84.18363 33887 ft 450 kts 286°
2026-05-07 01:39 25.02824 84.11906 33888 ft 450 kts 286°
2026-05-07 01:39 25.05042 84.05448 33872 ft 450 kts 286°
2026-05-07 01:40 25.07258 83.98982 33886 ft 450 kts 286°
2026-05-07 01:40 25.09470 83.92520 33873 ft 450 kts 286°
2026-05-07 01:41 25.11679 83.86056 33875 ft 450 kts 286°
2026-05-07 01:41 25.13891 83.79574 33877 ft 451 kts 286°
2026-05-07 01:42 25.16096 83.73100 33877 ft 451 kts 286°
2026-05-07 01:42 25.18298 83.66625 33881 ft 451 kts 286°
2026-05-07 01:43 25.20497 83.60146 33886 ft 451 kts 286°
2026-05-07 01:43 25.22696 83.53659 33873 ft 451 kts 286°
2026-05-07 01:44 25.24889 83.47179 33866 ft 451 kts 286°
2026-05-07 01:44 25.27066 83.40734 33872 ft 450 kts 286°
2026-05-07 01:45 25.29267 83.34208 33872 ft 450 kts 286°
2026-05-07 01:45 25.31437 83.27763 33867 ft 450 kts 286°
2026-05-07 01:46 25.33621 83.21266 33874 ft 450 kts 286°
2026-05-07 01:46 25.35802 83.14768 33872 ft 450 kts 286°
2026-05-07 01:47 25.37980 83.08266 33872 ft 450 kts 286°
2026-05-07 01:47 25.40153 83.01770 33886 ft 450 kts 286°
2026-05-07 01:48 25.42323 82.95272 33880 ft 450 kts 286°
2026-05-07 01:48 25.44522 82.88780 33879 ft 452 kts 289°
2026-05-07 01:49 25.47646 82.82736 33898 ft 460 kts 299°
2026-05-07 01:49 25.51419 82.76994 33883 ft 462 kts 301°
2026-05-07 01:50 25.55295 82.71316 33878 ft 462 kts 302°
2026-05-07 01:50 25.59166 82.65637 33877 ft 461 kts 302°
2026-05-07 01:51 25.63018 82.59944 33872 ft 461 kts 301°
2026-05-07 01:51 25.66859 82.54243 33875 ft 461 kts 301°
2026-05-07 01:52 25.70694 82.48543 33877 ft 461 kts 301°
2026-05-07 01:52 25.74528 82.42838 33881 ft 461 kts 301°
2026-05-07 01:53 25.78342 82.37156 33882 ft 460 kts 302°
2026-05-07 01:53 25.82160 82.31463 33880 ft 460 kts 302°
2026-05-07 01:54 25.85979 82.25760 33882 ft 460 kts 302°
2026-05-07 01:54 25.89792 82.20058 33882 ft 459 kts 302°
2026-05-07 01:55 25.93598 82.14361 33887 ft 459 kts 302°
2026-05-07 01:55 25.97382 82.08690 33889 ft 459 kts 302°
2026-05-07 01:56 26.01188 82.02979 33889 ft 459 kts 302°
2026-05-07 01:56 26.04990 81.97267 33890 ft 459 kts 302°
2026-05-07 01:57 26.08787 81.91555 33897 ft 459 kts 302°
2026-05-07 01:57 26.12584 81.85837 33893 ft 459 kts 302°
2026-05-07 01:58 26.16376 81.80118 33899 ft 459 kts 302°
2026-05-07 01:58 26.20165 81.74397 33900 ft 459 kts 302°
2026-05-07 01:59 26.23951 81.68674 33900 ft 459 kts 302°
2026-05-07 01:59 26.27740 81.62938 33906 ft 459 kts 302°
2026-05-07 02:00 26.31519 81.57212 33906 ft 458 kts 302°
2026-05-07 02:00 26.35281 81.51504 33910 ft 455 kts 302°
2026-05-07 02:01 26.39014 81.45832 33910 ft 453 kts 302°
2026-05-07 02:01 26.42742 81.40160 33909 ft 453 kts 302°
2026-05-07 02:02 26.46473 81.34475 33911 ft 453 kts 302°
2026-05-07 02:02 26.50173 81.28831 33911 ft 453 kts 302°
2026-05-07 02:03 26.53897 81.23146 33911 ft 454 kts 302°
2026-05-07 02:03 26.57622 81.17450 33916 ft 453 kts 302°
2026-05-07 02:04 26.61340 81.11759 33919 ft 452 kts 303°
2026-05-07 02:04 26.65042 81.06085 33916 ft 451 kts 303°
2026-05-07 02:05 26.68731 81.00423 33920 ft 451 kts 303°
2026-05-07 02:05 26.72417 80.94759 33911 ft 450 kts 303°
2026-05-07 02:06 26.76104 80.89088 33916 ft 450 kts 302°
2026-05-07 02:06 26.80026 80.83673 33913 ft 450 kts 307°
2026-05-07 02:07 26.84183 80.78423 33911 ft 450 kts 307°
2026-05-07 02:07 26.90357 80.70499 33914 ft 451 kts 307°
2026-05-07 02:08 26.94441 80.65151 33920 ft 451 kts 307°
2026-05-07 02:08 26.98517 80.59790 33903 ft 451 kts 307°
2026-05-07 02:09 27.02562 80.54467 33909 ft 451 kts 307°
2026-05-07 02:09 27.06642 80.49094 33907 ft 452 kts 307°
2026-05-07 02:10 27.10725 80.43711 33899 ft 452 kts 307°
2026-05-07 02:10 27.14799 80.38334 33927 ft 452 kts 307°
2026-05-07 02:11 27.18874 80.32949 33904 ft 453 kts 307°
2026-05-07 02:11 27.22956 80.27549 33892 ft 453 kts 307°
2026-05-07 02:12 27.27036 80.22143 33895 ft 453 kts 307°
2026-05-07 02:12 27.31084 80.16775 33895 ft 453 kts 307°
2026-05-07 02:13 27.35163 80.11358 33879 ft 453 kts 307°
2026-05-07 02:13 27.39237 80.05941 33884 ft 453 kts 307°
2026-05-07 02:14 27.43309 80.00518 33873 ft 453 kts 307°
2026-05-07 02:14 27.47382 79.95089 33878 ft 454 kts 307°
2026-05-07 02:15 27.50767 79.90571 33878 ft 454 kts 307°
2026-05-07 02:15 27.54835 79.85136 33873 ft 454 kts 307°
2026-05-07 02:16 27.58907 79.79690 33873 ft 454 kts 307°
2026-05-07 02:16 27.62971 79.74246 33872 ft 453 kts 307°
2026-05-07 02:17 27.67029 79.68804 33867 ft 453 kts 307°
2026-05-07 02:17 27.71254 79.63565 33873 ft 455 kts 311°
2026-05-07 02:18 27.75726 79.58493 33870 ft 455 kts 312°
2026-05-07 02:18 27.80222 79.53461 33862 ft 455 kts 312°
2026-05-07 02:19 27.84720 79.48425 33862 ft 455 kts 312°
2026-05-07 02:19 27.89214 79.43377 33862 ft 455 kts 312°
2026-05-07 02:20 27.93703 79.38322 33856 ft 455 kts 312°
2026-05-07 02:20 27.98189 79.33265 33857 ft 455 kts 312°
2026-05-07 02:21 28.02647 79.28233 33864 ft 455 kts 312°
2026-05-07 02:21 28.07132 79.23164 33856 ft 456 kts 312°
2026-05-07 02:22 28.11618 79.18088 33856 ft 456 kts 312°
2026-05-07 02:22 28.16109 79.13000 33854 ft 456 kts 312°
2026-05-07 02:23 28.20591 79.07915 33854 ft 456 kts 312°
2026-05-07 02:23 28.25071 79.02827 33869 ft 456 kts 312°
2026-05-07 02:24 28.29546 78.97738 33864 ft 456 kts 312°
2026-05-07 02:24 28.34026 78.92636 33873 ft 456 kts 312°
2026-05-07 02:25 28.38503 78.87532 33873 ft 456 kts 312°
2026-05-07 02:25 28.42942 78.82464 33870 ft 456 kts 312°
2026-05-07 02:26 28.47572 78.77521 33878 ft 458 kts 318°
2026-05-07 02:26 28.52583 78.73040 33876 ft 458 kts 319°
2026-05-07 02:27 28.57656 78.68641 33879 ft 459 kts 319°
2026-05-07 02:27 28.62730 78.64256 33875 ft 456 kts 319°
2026-05-07 02:28 28.67770 78.59882 33878 ft 455 kts 319°
2026-05-07 02:28 28.72778 78.55521 33878 ft 455 kts 319°
2026-05-07 02:29 28.77806 78.51134 33888 ft 455 kts 319°
2026-05-07 02:29 28.82834 78.46743 33883 ft 455 kts 319°
2026-05-07 02:30 28.87862 78.42346 33886 ft 455 kts 319°
2026-05-07 02:30 28.92891 78.37944 33879 ft 455 kts 319°
2026-05-07 02:31 28.97917 78.33538 33881 ft 455 kts 319°
2026-05-07 02:31 29.02943 78.29127 33904 ft 455 kts 319°
2026-05-07 02:32 29.07950 78.24726 33885 ft 460 kts 319°
2026-05-07 02:32 29.13046 78.20241 33871 ft 461 kts 319°
2026-05-07 02:33 29.18137 78.15758 33871 ft 462 kts 319°
2026-05-07 02:33 29.23226 78.11269 33887 ft 461 kts 319°
2026-05-07 02:34 29.28309 78.06780 33866 ft 461 kts 319°
2026-05-07 02:34 29.33400 78.02277 33878 ft 465 kts 319°
2026-05-07 02:35 29.38530 77.97733 33876 ft 466 kts 319°
2026-05-07 02:35 29.43659 77.93186 33881 ft 465 kts 319°
2026-05-07 02:36 29.48719 77.88696 33881 ft 462 kts 319°
2026-05-07 02:36 29.53797 77.84181 33880 ft 462 kts 319°
2026-05-07 02:37 29.58879 77.79655 33875 ft 464 kts 320°
2026-05-07 02:37 29.63990 77.75099 33875 ft 465 kts 320°
2026-05-07 02:38 29.69107 77.70531 33875 ft 466 kts 320°
2026-05-07 02:38 29.74228 77.65955 33873 ft 465 kts 320°
2026-05-07 02:39 29.79348 77.61374 33871 ft 466 kts 320°
2026-05-07 02:39 29.84430 77.56819 33874 ft 466 kts 320°
2026-05-07 02:40 29.89548 77.52228 33875 ft 465 kts 320°
2026-05-07 02:40 29.94657 77.47637 33873 ft 465 kts 320°
2026-05-07 02:41 29.99955 77.43338 33874 ft 467 kts 329°
2026-05-07 02:41 30.05711 77.39814 33874 ft 468 kts 330°
2026-05-07 02:42 30.11502 77.36450 33874 ft 468 kts 331°
2026-05-07 02:42 30.17335 77.33085 33875 ft 469 kts 331°
2026-05-07 02:43 30.23163 77.29703 33881 ft 468 kts 331°
2026-05-07 02:43 30.28984 77.26310 33882 ft 468 kts 331°
2026-05-07 02:44 30.34800 77.22910 33903 ft 468 kts 332°
2026-05-07 02:44 30.40181 77.18733 33881 ft 463 kts 317°
2026-05-07 02:45 30.44456 77.13174 33881 ft 462 kts 308°
2026-05-07 02:45 30.48369 77.07255 33870 ft 462 kts 307°
2026-05-07 02:46 30.52222 77.01285 33870 ft 462 kts 307°
2026-05-07 02:46 30.56066 76.95355 33875 ft 462 kts 307°
2026-05-07 02:47 30.59942 76.89403 33871 ft 463 kts 307°
2026-05-07 02:47 30.63830 76.83438 33857 ft 463 kts 307°
2026-05-07 02:48 30.67594 76.77348 33857 ft 465 kts 301°
2026-05-07 02:48 30.70360 76.70551 33855 ft 466 kts 294°
2026-05-07 02:49 30.72778 76.63610 33860 ft 466 kts 292°
2026-05-07 02:49 30.75167 76.56549 33869 ft 466 kts 292°
2026-05-07 02:50 30.77528 76.49586 33851 ft 466 kts 293°
2026-05-07 02:50 30.79906 76.42601 33872 ft 461 kts 293°
2026-05-07 02:51 30.82270 76.35665 33872 ft 463 kts 293°
2026-05-07 02:51 30.84651 76.28667 33870 ft 465 kts 293°
2026-05-07 02:52 30.87029 76.21659 33869 ft 465 kts 293°
2026-05-07 02:52 30.89404 76.14645 33870 ft 465 kts 293°
2026-05-07 02:53 30.91769 76.07644 33867 ft 464 kts 294°
2026-05-07 02:53 30.94129 76.00643 33862 ft 464 kts 294°
2026-05-07 02:54 30.96481 75.93652 33862 ft 464 kts 294°
2026-05-07 02:54 30.98833 75.86649 33856 ft 464 kts 294°
2026-05-07 02:55 31.01163 75.79694 33871 ft 464 kts 293°
2026-05-07 02:55 31.03514 75.72662 33847 ft 465 kts 294°
2026-05-07 02:56 31.05858 75.65639 33851 ft 465 kts 294°
2026-05-07 02:56 31.08199 75.58605 33862 ft 465 kts 294°
2026-05-07 02:57 31.10536 75.51572 33851 ft 465 kts 294°
2026-05-07 02:57 31.12798 75.44502 33844 ft 466 kts 290°
2026-05-07 02:58 31.14618 75.37235 33851 ft 466 kts 289°
2026-05-07 02:58 31.16344 75.29954 33844 ft 465 kts 289°
2026-05-07 02:59 31.18126 75.22699 33842 ft 465 kts 289°
2026-05-07 02:59 31.19949 75.15453 33837 ft 465 kts 290°
2026-05-07 03:00 31.21779 75.08205 33844 ft 466 kts 290°
2026-05-07 03:00 31.23599 75.00976 33835 ft 466 kts 290°
2026-05-07 03:01 31.25417 74.93719 33835 ft 465 kts 290°
2026-05-07 03:01 31.27230 74.86461 33834 ft 465 kts 290°
2026-05-07 03:02 31.28736 74.80423 33838 ft 465 kts 290°
2026-05-07 03:02 31.30539 74.73168 33829 ft 465 kts 290°
2026-05-07 03:03 31.32341 74.65906 33829 ft 465 kts 290°
2026-05-07 03:03 31.34139 74.58637 33826 ft 465 kts 290°
2026-05-07 03:04 31.35821 74.51330 33828 ft 466 kts 287°
2026-05-07 03:04 31.37174 74.43894 33827 ft 467 kts 285°
2026-05-07 03:05 31.38490 74.36493 33836 ft 467 kts 286°
2026-05-07 03:05 31.39860 74.29064 33826 ft 467 kts 287°
2026-05-07 03:06 31.41254 74.21639 33825 ft 466 kts 287°
2026-05-07 03:06 31.42650 74.14216 33819 ft 466 kts 287°
2026-05-07 03:07 31.44038 74.06799 33814 ft 466 kts 287°
2026-05-07 03:07 31.44639 73.99236 33790 ft 476 kts 272°
2026-05-07 03:08 31.44062 73.91481 33809 ft 479 kts 269°
2026-05-07 03:08 31.43261 73.83728 33809 ft 480 kts 268°
2026-05-07 03:09 31.42436 73.75979 33802 ft 480 kts 268°
2026-05-07 03:09 31.41627 73.68231 33801 ft 479 kts 269°
2026-05-07 03:10 31.40827 73.60479 33798 ft 478 kts 268°
2026-05-07 03:10 31.40030 73.52787 33802 ft 475 kts 268°
2026-05-07 03:11 31.39231 73.45106 33795 ft 475 kts 268°
2026-05-07 03:11 31.38428 73.37433 33796 ft 475 kts 268°
2026-05-07 03:12 31.37619 73.29759 33774 ft 475 kts 268°
2026-05-07 03:12 31.36807 73.22105 33798 ft 473 kts 267°
2026-05-07 03:13 31.35991 73.14469 33794 ft 472 kts 267°
2026-05-07 03:13 31.35174 73.06845 33800 ft 472 kts 267°
2026-05-07 03:14 31.34357 72.99269 33803 ft 472 kts 267°
2026-05-07 03:15 31.33113 72.87844 33799 ft 471 kts 267°
2026-05-07 03:15 31.32284 72.80241 33797 ft 471 kts 267°
2026-05-07 03:16 31.31449 72.72642 33793 ft 471 kts 267°
2026-05-07 03:16 31.30609 72.65041 33792 ft 471 kts 267°
2026-05-07 03:17 31.29765 72.57444 33781 ft 471 kts 267°
2026-05-07 03:17 31.28916 72.49856 33785 ft 470 kts 267°
2026-05-07 03:18 31.28065 72.42282 33782 ft 470 kts 267°
2026-05-07 03:18 31.27447 72.34711 33786 ft 465 kts 275°
2026-05-07 03:18 31.27683 72.31017 33969 ft 458 kts 282°
2026-05-07 03:19 31.28371 72.27418 34289 ft 450 kts 290°
2026-05-07 03:19 31.29488 72.24035 34539 ft 444 kts 298°
2026-05-07 03:19 31.30852 72.20810 34768 ft 441 kts 300°
2026-05-07 03:19 31.32289 72.17644 34949 ft 440 kts 300°
2026-05-07 03:20 31.33758 72.14510 35117 ft 439 kts 301°
2026-05-07 03:20 31.35238 72.11383 35299 ft 438 kts 301°
2026-05-07 03:20 31.36714 72.08257 35393 ft 439 kts 301°
2026-05-07 03:20 31.38182 72.05129 35519 ft 439 kts 301°
2026-05-07 03:21 31.39646 72.01987 35690 ft 438 kts 301°
2026-05-07 03:21 31.42557 71.95700 35776 ft 441 kts 300°
2026-05-07 03:22 31.45486 71.89345 35770 ft 443 kts 300°
2026-05-07 03:22 31.48403 71.83000 35789 ft 441 kts 300°
2026-05-07 03:23 31.51310 71.76672 35776 ft 441 kts 300°
2026-05-07 03:23 31.54213 71.70346 35792 ft 441 kts 300°
2026-05-07 03:24 31.57118 71.64004 35783 ft 442 kts 300°
2026-05-07 03:24 31.60034 71.57633 35787 ft 443 kts 300°
2026-05-07 03:25 31.62940 71.51262 35782 ft 442 kts 300°
2026-05-07 03:25 31.65809 71.44949 35782 ft 441 kts 300°
2026-05-07 03:26 31.68694 71.38595 35784 ft 441 kts 300°
2026-05-07 03:26 31.71577 71.32239 35785 ft 441 kts 300°
2026-05-07 03:27 31.74459 71.25876 35784 ft 441 kts 300°
2026-05-07 03:27 31.77340 71.19503 35780 ft 442 kts 300°
2026-05-07 03:28 31.80218 71.13126 35789 ft 442 kts 300°
2026-05-07 03:28 31.83081 71.06772 35780 ft 442 kts 300°
2026-05-07 03:29 31.85958 71.00373 35796 ft 442 kts 300°
2026-05-07 03:29 31.88830 70.93977 35782 ft 442 kts 300°
2026-05-07 03:30 31.91916 70.87734 35774 ft 440 kts 307°
2026-05-07 03:30 31.95562 70.81953 35798 ft 439 kts 308°
2026-05-07 03:31 31.99302 70.76250 35804 ft 441 kts 308°
2026-05-07 03:31 32.03061 70.70544 35786 ft 441 kts 308°
2026-05-07 03:32 32.06816 70.64816 35800 ft 441 kts 308°
2026-05-07 03:32 32.10557 70.59088 35790 ft 441 kts 308°
2026-05-07 03:33 32.14275 70.53381 35779 ft 441 kts 308°
2026-05-07 03:33 32.18005 70.47647 35800 ft 440 kts 308°
2026-05-07 03:34 32.21736 70.41905 35800 ft 440 kts 308°
2026-05-07 03:34 32.25460 70.36166 35801 ft 440 kts 308°
2026-05-07 03:35 32.29184 70.30416 35811 ft 440 kts 308°
2026-05-07 03:35 32.32905 70.24665 35824 ft 440 kts 308°
2026-05-07 03:36 32.36624 70.18907 35822 ft 440 kts 308°
2026-05-07 03:36 32.40383 70.13179 35842 ft 440 kts 309°
2026-05-07 03:37 32.44192 70.07509 35844 ft 440 kts 309°
2026-05-07 03:37 32.47973 70.01871 35875 ft 439 kts 309°
2026-05-07 03:38 32.51763 69.96192 35877 ft 439 kts 309°
2026-05-07 03:38 32.55552 69.90494 35888 ft 440 kts 309°
2026-05-07 03:39 32.59336 69.84792 35890 ft 440 kts 308°
2026-05-07 03:39 32.63117 69.79085 35914 ft 439 kts 308°
2026-05-07 03:40 32.66892 69.73379 35920 ft 439 kts 308°
2026-05-07 03:40 32.70664 69.67672 35919 ft 439 kts 308°
2026-05-07 03:41 32.74428 69.61967 35926 ft 439 kts 308°
2026-05-07 03:41 32.78185 69.56261 35935 ft 439 kts 308°
2026-05-07 03:42 32.81926 69.50572 35933 ft 440 kts 308°
2026-05-07 03:42 32.85710 69.44809 35943 ft 439 kts 308°
2026-05-07 03:43 32.89436 69.39125 35958 ft 438 kts 308°
2026-05-07 03:43 32.93164 69.33400 35960 ft 437 kts 308°
2026-05-07 03:44 32.96886 69.27672 35975 ft 436 kts 308°
2026-05-07 03:44 33.00608 69.21942 35983 ft 439 kts 308°
2026-05-07 03:45 33.04350 69.16174 35978 ft 439 kts 308°
2026-05-07 03:45 33.08055 69.10456 35993 ft 438 kts 308°
2026-05-07 03:46 33.11778 69.04700 36001 ft 438 kts 308°
2026-05-07 03:46 33.15487 68.98960 36001 ft 436 kts 308°
2026-05-07 03:47 33.19223 68.93166 36002 ft 439 kts 307°
2026-05-07 03:47 33.22934 68.87400 36002 ft 440 kts 307°
2026-05-07 03:48 33.26665 68.81596 35992 ft 440 kts 307°
2026-05-07 03:48 33.30464 68.75880 35996 ft 439 kts 310°
2026-05-07 03:49 33.34472 68.70374 35986 ft 439 kts 310°
2026-05-07 03:49 33.38495 68.64879 35995 ft 440 kts 310°
2026-05-07 03:50 33.41824 68.60266 35991 ft 440 kts 310°
2026-05-07 03:50 33.45808 68.54695 35998 ft 441 kts 310°
2026-05-07 03:51 33.49789 68.49107 36000 ft 441 kts 310°
2026-05-07 03:51 33.53778 68.43499 36016 ft 442 kts 310°
2026-05-07 03:52 33.57742 68.37864 36020 ft 442 kts 309°
2026-05-07 03:52 33.61621 68.32146 36051 ft 442 kts 309°
2026-05-07 03:53 33.65493 68.26413 36049 ft 442 kts 309°
2026-05-07 03:53 33.69374 68.20687 36068 ft 442 kts 309°
2026-05-07 03:54 33.73258 68.14970 36078 ft 441 kts 308°
2026-05-07 03:54 33.77141 68.09252 36100 ft 441 kts 309°
2026-05-07 03:55 33.81001 68.03556 36098 ft 442 kts 309°
2026-05-07 03:55 33.84881 67.97818 36105 ft 442 kts 308°
2026-05-07 03:56 33.88758 67.92075 36124 ft 442 kts 308°
2026-05-07 03:56 33.92636 67.86322 36132 ft 442 kts 308°
2026-05-07 03:57 33.96509 67.80567 36136 ft 443 kts 308°
2026-05-07 03:57 34.00390 67.74789 36154 ft 444 kts 308°
2026-05-07 03:58 34.04240 67.68963 36150 ft 444 kts 308°
2026-05-07 03:58 34.08068 67.63134 36163 ft 443 kts 308°
2026-05-07 03:59 34.11899 67.57301 36163 ft 443 kts 308°
2026-05-07 03:59 34.15735 67.51465 36169 ft 444 kts 308°
2026-05-07 04:00 34.19580 67.45613 36156 ft 444 kts 308°
2026-05-07 04:00 34.23393 67.39802 36172 ft 444 kts 308°
2026-05-07 04:01 34.27224 67.33949 36169 ft 443 kts 307°
2026-05-07 04:01 34.31047 67.28098 36169 ft 443 kts 308°
2026-05-07 04:02 34.34869 67.22239 36168 ft 444 kts 308°
2026-05-07 04:02 34.38699 67.16368 36175 ft 444 kts 308°
2026-05-07 04:03 34.42516 67.10498 36174 ft 443 kts 307°
2026-05-07 04:03 34.46325 67.04626 36187 ft 444 kts 307°
2026-05-07 04:04 34.50137 66.98741 36213 ft 444 kts 307°
2026-05-07 04:04 34.53959 66.92836 36196 ft 445 kts 307°
2026-05-07 04:05 34.57784 66.86916 36196 ft 446 kts 307°
2026-05-07 04:05 34.61600 66.81001 36201 ft 445 kts 307°
2026-05-07 04:06 34.65413 66.75079 36199 ft 445 kts 307°
2026-05-07 04:06 34.69220 66.69141 36204 ft 444 kts 307°
2026-05-07 04:07 34.72991 66.63240 36211 ft 446 kts 307°
2026-05-07 04:07 34.76798 66.57282 36197 ft 446 kts 307°
2026-05-07 04:08 34.80608 66.51310 36206 ft 446 kts 307°
2026-05-07 04:08 34.84400 66.45365 36194 ft 444 kts 307°
2026-05-07 04:09 34.88184 66.39422 36198 ft 444 kts 307°
2026-05-07 04:09 34.91978 66.33454 36191 ft 446 kts 306°
2026-05-07 04:10 34.95779 66.27463 36192 ft 446 kts 307°
2026-05-07 04:10 34.99544 66.21506 36190 ft 446 kts 306°
2026-05-07 04:11 35.03286 66.15510 36185 ft 442 kts 306°
2026-05-07 04:11 35.07006 66.09525 36175 ft 443 kts 306°
2026-05-07 04:12 35.10748 66.03509 36180 ft 445 kts 306°
2026-05-07 04:12 35.14499 65.97480 36171 ft 445 kts 306°
2026-05-07 04:13 35.18246 65.91453 36173 ft 445 kts 306°
2026-05-07 04:13 35.21979 65.85435 36182 ft 442 kts 306°
2026-05-07 04:14 35.25702 65.79418 36164 ft 444 kts 306°
2026-05-07 04:14 35.29401 65.73428 36143 ft 444 kts 305°
2026-05-07 04:15 35.33139 65.67367 36150 ft 444 kts 306°
2026-05-07 04:15 35.36854 65.61333 36125 ft 443 kts 306°
2026-05-07 04:16 35.40563 65.55302 36131 ft 442 kts 305°
2026-05-07 04:16 35.44263 65.49271 36126 ft 443 kts 305°
2026-05-07 04:17 35.47971 65.43217 36112 ft 444 kts 305°
2026-05-07 04:17 35.51674 65.37162 36081 ft 443 kts 305°
2026-05-07 04:18 35.55375 65.31099 36089 ft 443 kts 305°
2026-05-07 04:18 35.59071 65.25036 36060 ft 443 kts 305°
2026-05-07 04:19 35.62753 65.18981 36038 ft 442 kts 305°
2026-05-07 04:19 35.66434 65.12918 36040 ft 442 kts 305°
2026-05-07 04:20 35.70085 65.06897 36011 ft 442 kts 305°
2026-05-07 04:20 35.73766 65.00817 36013 ft 442 kts 304°
2026-05-07 04:21 35.79284 64.91671 35985 ft 444 kts 304°
2026-05-07 04:21 35.82964 64.85563 35958 ft 443 kts 304°
2026-05-07 04:22 35.86636 64.79459 35960 ft 443 kts 304°
2026-05-07 04:22 35.90277 64.73393 35944 ft 443 kts 304°
2026-05-07 04:23 35.93967 64.67234 35940 ft 444 kts 304°
2026-05-07 04:23 35.97615 64.61137 35941 ft 444 kts 304°
2026-05-07 04:24 36.01282 64.54997 35939 ft 444 kts 304°
2026-05-07 04:24 36.04945 64.48852 35930 ft 444 kts 304°
2026-05-07 04:25 36.08607 64.42696 35927 ft 444 kts 304°
2026-05-07 04:25 36.12264 64.36540 35923 ft 444 kts 304°
2026-05-07 04:26 36.15919 64.30377 35923 ft 443 kts 304°
2026-05-07 04:26 36.19590 64.24313 35925 ft 443 kts 305°
2026-05-07 04:27 36.23397 64.18295 35924 ft 443 kts 306°
2026-05-07 04:27 36.27210 64.12270 35921 ft 444 kts 306°
2026-05-07 04:28 36.31003 64.06222 35921 ft 444 kts 305°
2026-05-07 04:28 36.34783 64.00162 35916 ft 443 kts 305°
2026-05-07 04:29 36.38546 63.94111 35931 ft 443 kts 305°
2026-05-07 04:29 36.42315 63.88042 35922 ft 444 kts 305°
2026-05-07 04:30 36.46066 63.81993 35918 ft 445 kts 305°
2026-05-07 04:30 36.49842 63.75894 35915 ft 444 kts 305°
2026-05-07 04:31 36.53605 63.69807 35919 ft 444 kts 304°
2026-05-07 04:31 36.57366 63.63710 35914 ft 444 kts 304°
2026-05-07 04:32 36.61130 63.57596 35916 ft 445 kts 304°
2026-05-07 04:32 36.64892 63.51475 35916 ft 445 kts 304°
2026-05-07 04:33 36.68655 63.45343 35920 ft 445 kts 304°
2026-05-07 04:33 36.72389 63.39245 35920 ft 445 kts 304°
2026-05-07 04:34 36.76145 63.33101 35920 ft 445 kts 304°
2026-05-07 04:34 36.79900 63.26949 35914 ft 445 kts 304°
2026-05-07 04:35 36.83646 63.20797 35920 ft 445 kts 304°
2026-05-07 04:35 36.87396 63.14630 35918 ft 446 kts 304°
2026-05-07 04:36 36.91126 63.08483 35918 ft 446 kts 304°
2026-05-07 04:36 36.94893 63.02265 35914 ft 445 kts 304°
2026-05-07 04:37 36.98604 62.96128 35911 ft 445 kts 304°
2026-05-07 04:37 37.02337 62.89942 35915 ft 446 kts 303°
2026-05-07 04:38 37.06080 62.83727 35909 ft 448 kts 303°
2026-05-07 04:38 37.09197 62.78546 35908 ft 448 kts 303°
2026-05-07 04:39 37.12938 62.72315 35905 ft 447 kts 303°
2026-05-07 04:39 37.16679 62.66074 35922 ft 447 kts 303°
2026-05-07 04:40 37.20419 62.59819 35906 ft 449 kts 303°
2026-05-07 04:40 37.24171 62.53535 35900 ft 449 kts 303°
2026-05-07 04:41 37.27915 62.47252 35897 ft 449 kts 303°
2026-05-07 04:41 37.31631 62.41005 35909 ft 449 kts 303°
2026-05-07 04:42 37.35372 62.34703 35898 ft 450 kts 303°
2026-05-07 04:42 37.39115 62.28386 35895 ft 451 kts 303°
2026-05-07 04:43 37.42859 62.22057 35892 ft 451 kts 303°
2026-05-07 04:43 37.46593 62.15732 35909 ft 450 kts 303°
2026-05-07 04:44 37.50317 62.09412 35899 ft 449 kts 303°
2026-05-07 04:44 37.54036 62.03086 35907 ft 449 kts 303°
2026-05-07 04:45 37.57750 61.96758 35914 ft 449 kts 303°
2026-05-07 04:45 37.61425 61.90393 35902 ft 447 kts 299°
2026-05-07 04:46 37.64436 61.83582 35883 ft 443 kts 294°
2026-05-07 04:46 37.67234 61.76657 35896 ft 443 kts 294°
2026-05-07 04:47 37.69989 61.69706 35894 ft 443 kts 294°
2026-05-07 04:47 37.72744 61.62755 35894 ft 443 kts 294°
2026-05-07 04:48 37.75505 61.55800 35896 ft 443 kts 294°
2026-05-07 04:48 37.78268 61.48832 35897 ft 444 kts 294°
2026-05-07 04:49 37.81030 61.41852 35898 ft 444 kts 294°
2026-05-07 04:49 37.83793 61.34855 35897 ft 444 kts 294°
2026-05-07 04:50 37.86547 61.27864 35900 ft 444 kts 293°
2026-05-07 04:50 37.89284 61.20899 35906 ft 444 kts 293°
2026-05-07 04:51 37.92036 61.13880 35905 ft 445 kts 293°
2026-05-07 04:51 37.94785 61.06853 35908 ft 445 kts 293°
2026-05-07 04:52 37.97527 60.99829 35911 ft 444 kts 293°
2026-05-07 04:52 38.00260 60.92811 35914 ft 444 kts 293°
2026-05-07 04:53 38.02997 60.85767 35919 ft 446 kts 293°
2026-05-07 04:53 38.05733 60.78709 35917 ft 446 kts 293°
2026-05-07 04:54 38.08467 60.71643 35924 ft 445 kts 292°
2026-05-07 04:54 38.11189 60.64589 35922 ft 444 kts 292°
2026-05-07 04:55 38.13887 60.57582 35928 ft 446 kts 292°
2026-05-07 04:55 38.16610 60.50491 35930 ft 446 kts 292°
2026-05-07 04:56 38.19329 60.43398 35932 ft 446 kts 292°
2026-05-07 04:56 38.22044 60.36299 35936 ft 446 kts 292°
2026-05-07 04:57 38.24752 60.29199 35938 ft 446 kts 292°
2026-05-07 04:57 38.27461 60.22079 35941 ft 447 kts 292°
2026-05-07 04:58 38.30169 60.14948 35942 ft 447 kts 292°
2026-05-07 04:58 38.32873 60.07812 35944 ft 447 kts 292°
2026-05-07 04:59 38.35568 60.00680 35968 ft 447 kts 292°
2026-05-07 04:59 38.38266 59.93524 35955 ft 448 kts 292°
2026-05-07 05:00 38.40962 59.86354 35953 ft 448 kts 292°
2026-05-07 05:00 38.43651 59.79190 35963 ft 448 kts 292°
2026-05-07 05:01 38.46337 59.72017 35960 ft 448 kts 292°
2026-05-07 05:01 38.49018 59.64839 35970 ft 449 kts 291°
2026-05-07 05:02 38.51682 59.57687 35966 ft 449 kts 291°
2026-05-07 05:02 38.54377 59.50437 35981 ft 449 kts 291°
2026-05-07 05:03 38.57050 59.43231 35970 ft 449 kts 291°
2026-05-07 05:03 38.59701 59.36065 35983 ft 449 kts 291°
2026-05-07 05:04 38.62493 59.28888 35978 ft 451 kts 293°
2026-05-07 05:04 38.65378 59.21764 35980 ft 451 kts 293°
2026-05-07 05:05 38.68244 59.14635 35992 ft 450 kts 293°
2026-05-07 05:05 38.71087 59.07484 35990 ft 451 kts 292°
2026-05-07 05:06 38.73923 59.00309 35992 ft 451 kts 292°
2026-05-07 05:06 38.76753 58.93130 35991 ft 450 kts 292°
2026-05-07 05:07 38.79573 58.85964 35990 ft 450 kts 292°
2026-05-07 05:07 38.82370 58.78840 35993 ft 450 kts 292°
2026-05-07 05:08 38.85183 58.71660 35994 ft 450 kts 292°
2026-05-07 05:08 38.87978 58.64472 35994 ft 449 kts 290°
2026-05-07 05:09 38.90238 58.57034 36002 ft 446 kts 286°
2026-05-07 05:09 38.92313 58.49522 36007 ft 446 kts 285°
2026-05-07 05:10 38.94350 58.41992 36009 ft 446 kts 285°
2026-05-07 05:10 38.96387 58.34457 36015 ft 446 kts 285°
2026-05-07 05:11 38.98408 58.26985 36015 ft 445 kts 285°
2026-05-07 05:11 39.00441 58.19457 36024 ft 446 kts 285°
2026-05-07 05:12 39.02469 58.11930 36025 ft 445 kts 285°
2026-05-07 05:12 39.04494 58.04389 36023 ft 446 kts 285°
2026-05-07 05:13 39.06515 57.96839 36029 ft 446 kts 285°
2026-05-07 05:13 39.08534 57.89278 36032 ft 446 kts 284°
2026-05-07 05:14 39.10543 57.81730 36044 ft 445 kts 284°
2026-05-07 05:14 39.12547 57.74171 36033 ft 447 kts 284°
2026-05-07 05:15 39.14552 57.66593 36042 ft 447 kts 284°
2026-05-07 05:15 39.16551 57.59016 36039 ft 446 kts 284°
2026-05-07 05:16 39.18528 57.51498 36045 ft 445 kts 284°
2026-05-07 05:16 39.20514 57.43921 36048 ft 447 kts 284°
2026-05-07 05:17 39.22498 57.36325 36058 ft 448 kts 284°
2026-05-07 05:17 39.24478 57.28726 36054 ft 446 kts 284°
2026-05-07 05:18 39.26450 57.21137 36052 ft 446 kts 284°
2026-05-07 05:18 39.28415 57.13549 36068 ft 446 kts 283°
2026-05-07 05:19 39.30378 57.05944 36062 ft 446 kts 283°
2026-05-07 05:19 39.32319 56.98401 36059 ft 445 kts 283°
2026-05-07 05:20 39.34267 56.90812 36064 ft 445 kts 283°
2026-05-07 05:20 39.36206 56.83228 36078 ft 445 kts 283°
2026-05-07 05:21 39.38982 56.71804 36073 ft 443 kts 281°
2026-05-07 05:22 39.40700 56.64158 36077 ft 443 kts 281°
2026-05-07 05:22 39.42428 56.56513 36094 ft 443 kts 281°
2026-05-07 05:23 39.44158 56.48925 36080 ft 442 kts 281°
2026-05-07 05:23 39.45909 56.41253 36079 ft 442 kts 281°
2026-05-07 05:24 39.47634 56.33671 36078 ft 442 kts 281°
2026-05-07 05:24 39.49364 56.26038 36084 ft 441 kts 281°
2026-05-07 05:25 39.51087 56.18407 36082 ft 441 kts 281°
2026-05-07 05:25 39.52511 56.12079 36089 ft 441 kts 281°
2026-05-07 05:26 39.54221 56.04455 36084 ft 441 kts 281°
2026-05-07 05:26 39.55928 55.96821 36086 ft 441 kts 281°
2026-05-07 05:27 39.57629 55.89190 36085 ft 441 kts 281°
2026-05-07 05:27 39.59341 55.81560 36088 ft 441 kts 281°
2026-05-07 05:28 39.61039 55.73978 36092 ft 440 kts 280°
2026-05-07 05:28 39.62740 55.66355 36089 ft 440 kts 280°
2026-05-07 05:29 39.64434 55.58732 36091 ft 440 kts 280°
2026-05-07 05:29 39.66123 55.51102 36091 ft 440 kts 280°
2026-05-07 05:30 39.67806 55.43473 36089 ft 440 kts 280°
2026-05-07 05:30 39.69486 55.35835 36094 ft 440 kts 280°
2026-05-07 05:31 39.71161 55.28197 36095 ft 440 kts 280°
2026-05-07 05:31 39.72819 55.20556 36094 ft 440 kts 280°
2026-05-07 05:32 39.74476 55.12897 36123 ft 439 kts 280°
2026-05-07 05:32 39.76127 55.05248 36099 ft 440 kts 279°
2026-05-07 05:33 39.77764 54.97642 36099 ft 439 kts 279°
2026-05-07 05:33 39.79416 54.89935 36095 ft 439 kts 279°
2026-05-07 05:34 39.81053 54.82278 36100 ft 439 kts 279°
2026-05-07 05:34 39.82677 54.74662 36100 ft 440 kts 279°
2026-05-07 05:35 39.84322 54.66972 36094 ft 440 kts 279°
2026-05-07 05:35 39.85955 54.59304 36099 ft 440 kts 279°
2026-05-07 05:36 39.87585 54.51620 36103 ft 440 kts 279°
2026-05-07 05:36 39.89200 54.43984 36130 ft 440 kts 279°
2026-05-07 05:37 39.90819 54.36279 36106 ft 441 kts 279°
2026-05-07 05:37 39.92423 54.28556 36103 ft 442 kts 279°
2026-05-07 05:38 39.94026 54.20825 36094 ft 442 kts 279°
2026-05-07 05:38 39.95627 54.13083 36107 ft 442 kts 279°
2026-05-07 05:39 39.97213 54.05389 36102 ft 442 kts 279°
2026-05-07 05:39 39.98806 53.97630 36100 ft 443 kts 279°
2026-05-07 05:40 40.00396 53.89859 36107 ft 444 kts 278°
2026-05-07 05:40 40.01984 53.82073 36106 ft 444 kts 278°
2026-05-07 05:41 40.03565 53.74291 36128 ft 444 kts 278°
2026-05-07 05:41 40.05142 53.66495 36104 ft 444 kts 278°
2026-05-07 05:42 40.06713 53.58698 36105 ft 445 kts 278°
2026-05-07 05:42 40.08282 53.50885 36103 ft 445 kts 278°
2026-05-07 05:43 40.09846 53.43066 36105 ft 445 kts 278°
2026-05-07 05:43 40.11405 53.35243 36110 ft 446 kts 278°
2026-05-07 05:44 40.12953 53.27448 36100 ft 446 kts 278°
2026-05-07 05:44 40.14506 53.19597 36106 ft 446 kts 278°
2026-05-07 05:45 40.16051 53.11749 36105 ft 446 kts 278°
2026-05-07 05:45 40.17592 53.03892 36125 ft 446 kts 278°
2026-05-07 05:46 40.19131 52.96017 36109 ft 447 kts 278°
2026-05-07 05:46 40.20666 52.88133 36110 ft 447 kts 278°
2026-05-07 05:47 40.22196 52.80245 36113 ft 447 kts 278°
2026-05-07 05:47 40.23721 52.72352 36113 ft 447 kts 278°
2026-05-07 05:48 40.25241 52.64455 36118 ft 448 kts 278°
2026-05-07 05:48 40.26748 52.56593 36120 ft 448 kts 278°
2026-05-07 05:49 40.28264 52.48683 36121 ft 448 kts 278°
2026-05-07 05:49 40.29773 52.40766 36122 ft 448 kts 278°
2026-05-07 05:50 40.31280 52.32835 36135 ft 448 kts 278°
2026-05-07 05:50 40.32777 52.24922 36127 ft 447 kts 278°
2026-05-07 05:51 40.34266 52.17021 36126 ft 447 kts 278°
2026-05-07 05:51 40.35741 52.09158 36132 ft 447 kts 278°
2026-05-07 05:52 40.37220 52.01245 36136 ft 447 kts 278°
2026-05-07 05:52 40.38693 51.93332 36135 ft 446 kts 278°
2026-05-07 05:53 40.40160 51.85415 36131 ft 446 kts 278°
2026-05-07 05:53 40.41623 51.77491 36132 ft 446 kts 278°
2026-05-07 05:54 40.43078 51.69581 36130 ft 445 kts 278°
2026-05-07 05:54 40.44516 51.61725 36142 ft 445 kts 278°
2026-05-07 05:55 40.45960 51.53801 36135 ft 446 kts 278°
2026-05-07 05:55 40.47426 51.45880 36135 ft 447 kts 279°
2026-05-07 05:56 40.49044 51.37985 36136 ft 448 kts 279°
2026-05-07 05:56 40.50689 51.30096 36136 ft 447 kts 279°
2026-05-07 05:57 40.52307 51.22198 36133 ft 448 kts 279°
2026-05-07 05:57 40.53906 51.14280 36132 ft 448 kts 279°
2026-05-07 05:58 40.55486 51.06409 36131 ft 447 kts 279°
2026-05-07 05:58 40.57068 50.98501 36132 ft 447 kts 279°
2026-05-07 05:59 40.58644 50.90592 36125 ft 447 kts 279°
2026-05-07 05:59 40.60218 50.82668 36129 ft 448 kts 279°
2026-05-07 06:00 40.61786 50.74739 36134 ft 448 kts 279°
2026-05-07 06:00 40.63350 50.66808 36119 ft 447 kts 279°
2026-05-07 06:01 40.64907 50.58872 36138 ft 448 kts 279°
2026-05-07 06:01 40.66459 50.50932 36127 ft 448 kts 279°
2026-05-07 06:02 40.68009 50.42975 36124 ft 448 kts 279°
2026-05-07 06:02 40.69556 50.35013 36115 ft 448 kts 279°
2026-05-07 06:03 40.71089 50.27039 36114 ft 448 kts 279°
2026-05-07 06:03 40.72615 50.19078 36116 ft 449 kts 279°
2026-05-07 06:04 40.74141 50.11090 36113 ft 449 kts 279°
2026-05-07 06:04 40.75663 50.03101 36110 ft 449 kts 279°
2026-05-07 06:05 40.77169 49.95157 36116 ft 449 kts 279°
2026-05-07 06:05 40.78679 49.87165 36131 ft 449 kts 279°
2026-05-07 06:06 40.80187 49.79145 36114 ft 450 kts 279°
2026-05-07 06:06 40.81692 49.71112 36116 ft 450 kts 279°
2026-05-07 06:07 40.83190 49.63084 36112 ft 450 kts 279°
2026-05-07 06:07 40.84683 49.55047 36115 ft 450 kts 278°
2026-05-07 06:08 40.86169 49.47010 36119 ft 452 kts 279°
2026-05-07 06:08 40.87655 49.38942 36117 ft 452 kts 278°
2026-05-07 06:09 40.89129 49.30866 36118 ft 452 kts 278°
2026-05-07 06:09 40.90511 49.22754 36107 ft 451 kts 277°
2026-05-07 06:10 40.91851 49.14704 36127 ft 452 kts 278°
2026-05-07 06:10 40.93209 49.06573 36122 ft 453 kts 278°
2026-05-07 06:11 40.94576 48.98427 36120 ft 454 kts 278°
2026-05-07 06:11 40.95940 48.90284 36121 ft 453 kts 278°
2026-05-07 06:12 40.97297 48.82133 36124 ft 454 kts 278°
2026-05-07 06:12 40.98648 48.73974 36122 ft 455 kts 278°
2026-05-07 06:13 40.99769 48.67164 36119 ft 455 kts 277°
2026-05-07 06:13 41.01115 48.58969 36121 ft 455 kts 277°
2026-05-07 06:14 41.02455 48.50779 36125 ft 455 kts 277°
2026-05-07 06:14 41.03788 48.42577 36123 ft 455 kts 277°
2026-05-07 06:15 41.05118 48.34374 36127 ft 455 kts 277°
2026-05-07 06:15 41.06441 48.26166 36127 ft 455 kts 277°
2026-05-07 06:16 41.07747 48.18014 36126 ft 455 kts 277°
2026-05-07 06:16 41.09055 48.09799 36132 ft 455 kts 277°
2026-05-07 06:17 41.10364 48.01562 36177 ft 456 kts 277°
2026-05-07 06:17 41.11014 47.97461 36456 ft 453 kts 277°
2026-05-07 06:17 41.11665 47.93377 36689 ft 452 kts 277°
2026-05-07 06:17 41.12309 47.89295 36813 ft 452 kts 277°
2026-05-07 06:18 41.12950 47.85208 36976 ft 452 kts 277°
2026-05-07 06:18 41.13588 47.81129 37146 ft 452 kts 277°
2026-05-07 06:18 41.14228 47.77027 37285 ft 453 kts 277°
2026-05-07 06:18 41.14866 47.72929 37395 ft 454 kts 277°
2026-05-07 06:19 41.15494 47.68881 37523 ft 455 kts 277°
2026-05-07 06:19 41.16133 47.64756 37627 ft 456 kts 277°
2026-05-07 06:19 41.16772 47.60625 37757 ft 456 kts 277°
2026-05-07 06:19 41.17409 47.56501 37914 ft 456 kts 277°
2026-05-07 06:20 41.18044 47.52381 38049 ft 456 kts 277°
2026-05-07 06:20 41.18679 47.48250 38155 ft 457 kts 277°
2026-05-07 06:20 41.19315 47.44093 38161 ft 460 kts 277°
2026-05-07 06:21 41.20592 47.35726 38171 ft 463 kts 277°
2026-05-07 06:21 41.21857 47.27416 38186 ft 462 kts 277°
2026-05-07 06:22 41.23123 47.19050 38192 ft 461 kts 277°
2026-05-07 06:22 41.25009 47.06490 38197 ft 462 kts 277°
2026-05-07 06:23 41.26260 46.98111 38227 ft 462 kts 277°
2026-05-07 06:23 41.27496 46.89775 38207 ft 463 kts 277°
2026-05-07 06:24 41.28738 46.81360 38206 ft 464 kts 277°
2026-05-07 06:24 41.29977 46.72938 38214 ft 464 kts 277°
2026-05-07 06:25 41.31175 46.64495 38211 ft 464 kts 276°
2026-05-07 06:25 41.32342 46.56057 38210 ft 464 kts 276°
2026-05-07 06:26 41.33513 46.47586 38204 ft 465 kts 276°
2026-05-07 06:26 41.34684 46.39115 38206 ft 465 kts 276°
2026-05-07 06:27 41.35817 46.30893 38198 ft 465 kts 276°
2026-05-07 06:27 41.36976 46.22422 38212 ft 465 kts 276°
2026-05-07 06:28 41.38123 46.13992 38198 ft 466 kts 276°
2026-05-07 06:28 41.39273 46.05493 38194 ft 467 kts 276°
2026-05-07 06:29 41.40419 45.96973 38191 ft 467 kts 276°
2026-05-07 06:29 41.41559 45.88451 38192 ft 467 kts 276°
2026-05-07 06:30 41.42694 45.79917 38185 ft 468 kts 276°
2026-05-07 06:30 41.43825 45.71352 38186 ft 470 kts 276°
2026-05-07 06:31 41.44953 45.62768 38179 ft 470 kts 276°
2026-05-07 06:31 41.46074 45.54183 38176 ft 470 kts 276°
2026-05-07 06:32 41.47190 45.45589 38187 ft 470 kts 276°
2026-05-07 06:32 41.48302 45.36967 38172 ft 472 kts 276°
2026-05-07 06:33 41.49193 45.28365 38171 ft 471 kts 273°
2026-05-07 06:33 41.49824 45.19654 38173 ft 470 kts 272°
2026-05-07 06:34 41.50461 45.10957 38173 ft 471 kts 272°
2026-05-07 06:34 41.51139 45.02265 38175 ft 471 kts 273°
2026-05-07 06:35 41.51835 44.93545 38181 ft 473 kts 273°
2026-05-07 06:35 41.52527 44.84812 38181 ft 473 kts 273°
2026-05-07 06:36 41.53211 44.76074 38177 ft 473 kts 273°
2026-05-07 06:36 41.53883 44.67397 38182 ft 473 kts 273°
2026-05-07 06:37 41.54552 44.58658 38179 ft 473 kts 273°
2026-05-07 06:37 41.55213 44.49919 38172 ft 473 kts 273°
2026-05-07 06:38 41.55868 44.41186 38172 ft 473 kts 273°
2026-05-07 06:38 41.56513 44.32502 38165 ft 473 kts 273°
2026-05-07 06:39 41.57154 44.23765 38182 ft 473 kts 273°
2026-05-07 06:39 41.57823 44.15004 38170 ft 475 kts 273°
2026-05-07 06:40 41.58518 44.06217 38169 ft 476 kts 273°
2026-05-07 06:40 41.59205 43.97432 38166 ft 476 kts 273°
2026-05-07 06:41 41.59880 43.88636 38160 ft 475 kts 273°
2026-05-07 06:41 41.60546 43.79837 38169 ft 476 kts 273°
2026-05-07 06:42 41.61203 43.71056 38174 ft 479 kts 273°
2026-05-07 06:42 41.61861 43.62184 38162 ft 480 kts 273°
2026-05-07 06:43 41.62512 43.53313 38177 ft 480 kts 273°
2026-05-07 06:43 41.63161 43.44441 38158 ft 480 kts 273°
2026-05-07 06:44 41.63803 43.35550 38168 ft 481 kts 273°
2026-05-07 06:44 41.64438 43.26644 38166 ft 481 kts 273°
2026-05-07 06:45 41.65068 43.17726 38167 ft 482 kts 273°
2026-05-07 06:45 41.65692 43.08814 38169 ft 481 kts 273°
2026-05-07 06:46 41.66307 42.99908 38170 ft 481 kts 273°
2026-05-07 06:46 41.66917 42.90976 38173 ft 482 kts 273°
2026-05-07 06:47 41.66900 42.82093 38170 ft 480 kts 264°
2026-05-07 06:47 41.66251 42.73190 38172 ft 480 kts 262°
2026-05-07 06:48 41.65497 42.64320 38175 ft 480 kts 262°
2026-05-07 06:48 41.64733 42.55435 38175 ft 480 kts 262°
2026-05-07 06:49 41.63974 42.46549 38184 ft 481 kts 262°
2026-05-07 06:49 41.63214 42.37644 38184 ft 483 kts 262°
2026-05-07 06:50 41.62447 42.28723 38194 ft 483 kts 262°
2026-05-07 06:50 41.61672 42.19799 38195 ft 483 kts 262°
2026-05-07 06:51 41.60894 42.10916 38201 ft 482 kts 262°
2026-05-07 06:51 41.60109 42.02043 38202 ft 482 kts 262°
2026-05-07 06:52 41.59314 41.93134 38209 ft 483 kts 262°
2026-05-07 06:52 41.58509 41.84202 38207 ft 485 kts 262°
2026-05-07 06:53 41.57697 41.75260 38211 ft 485 kts 262°
2026-05-07 06:53 41.56878 41.66325 38210 ft 485 kts 262°
2026-05-07 06:54 41.56053 41.57400 38210 ft 484 kts 262°
2026-05-07 06:54 41.55226 41.48457 38208 ft 485 kts 263°
2026-05-07 06:55 41.55222 41.39512 38214 ft 485 kts 272°
2026-05-07 06:55 41.55689 41.30502 38209 ft 487 kts 274°
2026-05-07 06:56 41.56226 41.21503 38209 ft 487 kts 274°
2026-05-07 06:56 41.56754 41.12474 38209 ft 487 kts 274°
2026-05-07 06:57 41.57260 41.03458 38211 ft 487 kts 274°
2026-05-07 06:57 41.57753 40.94441 38212 ft 488 kts 274°
2026-05-07 06:58 41.58240 40.85404 38212 ft 488 kts 274°
2026-05-07 06:58 41.58720 40.76357 38220 ft 488 kts 274°
2026-05-07 06:59 41.59194 40.67315 38220 ft 488 kts 274°
2026-05-07 06:59 41.59664 40.58263 38218 ft 488 kts 274°
2026-05-07 07:00 41.60121 40.49274 38215 ft 488 kts 273°
2026-05-07 07:00 41.60571 40.40217 38217 ft 489 kts 273°
2026-05-07 07:01 41.61015 40.31159 38210 ft 489 kts 273°
2026-05-07 07:01 41.61383 40.23562 38220 ft 489 kts 273°
2026-05-07 07:02 41.61814 40.14549 38213 ft 489 kts 273°
2026-05-07 07:02 41.62240 40.05480 38213 ft 488 kts 273°
2026-05-07 07:03 41.62659 39.96397 38218 ft 488 kts 273°
2026-05-07 07:03 41.63068 39.87386 38217 ft 488 kts 273°
2026-05-07 07:04 41.63472 39.78327 38220 ft 488 kts 273°
2026-05-07 07:04 41.63869 39.69265 38218 ft 489 kts 273°
2026-05-07 07:05 41.64258 39.60201 38213 ft 489 kts 273°
2026-05-07 07:05 41.64646 39.51132 38214 ft 489 kts 273°
2026-05-07 07:06 41.65019 39.42061 38218 ft 488 kts 273°
2026-05-07 07:06 41.65384 39.32981 38220 ft 488 kts 273°
2026-05-07 07:07 41.65743 39.23913 38219 ft 489 kts 273°
2026-05-07 07:07 41.66097 39.14832 38216 ft 489 kts 273°
2026-05-07 07:08 41.66441 39.05814 38213 ft 489 kts 273°
2026-05-07 07:08 41.66780 38.96738 38219 ft 489 kts 273°
2026-05-07 07:09 41.67112 38.87668 38218 ft 489 kts 273°
2026-05-07 07:09 41.67438 38.78569 38210 ft 489 kts 273°
2026-05-07 07:10 41.67756 38.69490 38216 ft 489 kts 272°
2026-05-07 07:10 41.68067 38.60400 38218 ft 489 kts 272°
2026-05-07 07:11 41.68370 38.51325 38216 ft 489 kts 272°
2026-05-07 07:11 41.68666 38.42230 38216 ft 489 kts 272°
2026-05-07 07:12 41.68956 38.33145 38218 ft 489 kts 272°
2026-05-07 07:12 41.69236 38.24113 38214 ft 488 kts 272°
2026-05-07 07:13 41.69511 38.15028 38209 ft 488 kts 272°
2026-05-07 07:13 41.69779 38.05944 38210 ft 488 kts 272°
2026-05-07 07:14 41.70040 37.96852 38214 ft 489 kts 272°
2026-05-07 07:14 41.70293 37.87763 38210 ft 489 kts 272°
2026-05-07 07:15 41.70540 37.78666 38209 ft 489 kts 272°
2026-05-07 07:15 41.70779 37.69578 38209 ft 488 kts 272°
2026-05-07 07:16 41.71015 37.60494 38208 ft 488 kts 272°
2026-05-07 07:16 41.71236 37.51473 38203 ft 487 kts 272°
2026-05-07 07:17 41.71450 37.42409 38205 ft 488 kts 272°
2026-05-07 07:17 41.71658 37.33332 38201 ft 488 kts 272°
2026-05-07 07:18 41.71861 37.24191 38202 ft 488 kts 272°
2026-05-07 07:18 41.72056 37.15164 38200 ft 488 kts 272°
2026-05-07 07:19 41.72244 37.06086 38201 ft 488 kts 272°
2026-05-07 07:19 41.72424 36.97013 38199 ft 487 kts 272°
2026-05-07 07:20 41.72598 36.87947 38196 ft 487 kts 272°
2026-05-07 07:20 41.72765 36.78870 38197 ft 488 kts 272°
2026-05-07 07:21 41.72924 36.69780 38192 ft 488 kts 272°
2026-05-07 07:21 41.73077 36.60683 38189 ft 488 kts 272°
2026-05-07 07:22 41.73221 36.51659 38194 ft 488 kts 272°
2026-05-07 07:22 41.73359 36.42567 38191 ft 488 kts 272°
2026-05-07 07:23 41.73490 36.33489 38187 ft 488 kts 272°
2026-05-07 07:23 41.73614 36.24409 38190 ft 488 kts 272°
2026-05-07 07:24 41.73730 36.15328 38186 ft 488 kts 272°
2026-05-07 07:24 41.73840 36.06241 38181 ft 488 kts 272°
2026-05-07 07:25 41.73989 35.92685 38183 ft 487 kts 272°
2026-05-07 07:26 41.74081 35.83617 38180 ft 487 kts 272°
2026-05-07 07:26 41.74165 35.74558 38174 ft 487 kts 272°
2026-05-07 07:27 41.74242 35.65498 38175 ft 487 kts 272°
2026-05-07 07:27 41.74312 35.56435 38172 ft 487 kts 272°
2026-05-07 07:28 41.74375 35.47350 38171 ft 488 kts 272°
2026-05-07 07:28 41.74431 35.38266 38173 ft 487 kts 272°
2026-05-07 07:29 41.74479 35.29260 38168 ft 486 kts 272°
2026-05-07 07:29 41.74521 35.20215 38165 ft 486 kts 272°
2026-05-07 07:30 41.74555 35.11168 38169 ft 485 kts 272°
2026-05-07 07:30 41.74583 35.02129 38167 ft 485 kts 272°
2026-05-07 07:31 41.74603 34.93072 38166 ft 485 kts 272°
2026-05-07 07:31 41.74616 34.84034 38165 ft 485 kts 272°
2026-05-07 07:32 41.74622 34.74995 38157 ft 484 kts 272°
2026-05-07 07:32 41.74620 34.66042 38160 ft 483 kts 272°
2026-05-07 07:33 41.75301 34.57155 38160 ft 478 kts 286°
2026-05-07 07:33 41.77115 34.48588 38152 ft 478 kts 289°
2026-05-07 07:34 41.79115 34.40103 38156 ft 477 kts 290°
2026-05-07 07:34 41.81129 34.31624 38162 ft 477 kts 289°
2026-05-07 07:35 41.83114 34.23150 38160 ft 477 kts 289°
2026-05-07 07:35 41.85083 34.14645 38157 ft 477 kts 289°
2026-05-07 07:36 41.87039 34.06150 38158 ft 476 kts 289°
2026-05-07 07:36 41.88973 33.97724 38155 ft 475 kts 289°
2026-05-07 07:37 41.90914 33.89243 38152 ft 475 kts 289°
2026-05-07 07:37 41.92851 33.80749 38151 ft 475 kts 289°
2026-05-07 07:38 41.94775 33.72274 38155 ft 474 kts 289°
2026-05-07 07:38 41.96595 33.63767 38155 ft 474 kts 287°
2026-05-07 07:39 41.98206 33.55160 38156 ft 475 kts 287°
2026-05-07 07:39 41.99805 33.46553 38151 ft 474 kts 287°
2026-05-07 07:40 42.01425 33.37981 38152 ft 472 kts 287°
2026-05-07 07:40 42.03050 33.29444 38154 ft 471 kts 287°
2026-05-07 07:41 42.04670 33.20911 38156 ft 471 kts 287°
2026-05-07 07:41 42.06282 33.12373 38157 ft 470 kts 287°
2026-05-07 07:42 42.07901 33.03862 38158 ft 469 kts 288°
2026-05-07 07:42 42.09637 32.95402 38157 ft 469 kts 288°
2026-05-07 07:43 42.11386 32.86989 38157 ft 469 kts 288°
2026-05-07 07:43 42.13119 32.78532 38156 ft 469 kts 288°
2026-05-07 07:44 42.14835 32.70062 38157 ft 468 kts 288°
2026-05-07 07:44 42.16543 32.61582 38157 ft 468 kts 288°
2026-05-07 07:45 42.18246 32.53112 38157 ft 468 kts 288°
2026-05-07 07:45 42.19925 32.44673 38156 ft 469 kts 288°
2026-05-07 07:46 42.21607 32.36185 38158 ft 469 kts 288°
2026-05-07 07:46 42.23286 32.27691 38157 ft 469 kts 288°
2026-05-07 07:47 42.24960 32.19194 38149 ft 469 kts 288°
2026-05-07 07:47 42.26625 32.10684 38157 ft 469 kts 288°
2026-05-07 07:48 42.28287 32.02170 38155 ft 469 kts 288°
2026-05-07 07:48 42.29945 31.93657 38159 ft 469 kts 288°
2026-05-07 07:49 42.31600 31.85135 38142 ft 469 kts 288°
2026-05-07 07:49 42.33246 31.76611 38156 ft 468 kts 288°
2026-05-07 07:50 42.34886 31.68089 38147 ft 468 kts 288°
2026-05-07 07:50 42.36243 31.61006 38161 ft 468 kts 288°
2026-05-07 07:51 42.37868 31.52488 38157 ft 467 kts 287°
2026-05-07 07:51 42.39482 31.43994 38155 ft 466 kts 287°
2026-05-07 07:52 42.41088 31.35499 38158 ft 465 kts 287°
2026-05-07 07:52 42.42689 31.27003 38154 ft 465 kts 287°
2026-05-07 07:53 42.44280 31.18517 38145 ft 465 kts 287°
2026-05-07 07:53 42.45852 31.10092 38157 ft 464 kts 287°
2026-05-07 07:54 42.47426 31.01628 38154 ft 463 kts 287°
2026-05-07 07:54 42.48989 30.93158 38154 ft 463 kts 287°
2026-05-07 07:55 42.50546 30.84679 38155 ft 463 kts 287°
2026-05-07 07:55 42.52098 30.76197 38157 ft 463 kts 287°
2026-05-07 07:56 42.53641 30.67727 38154 ft 462 kts 287°
2026-05-07 07:56 42.55177 30.59259 38159 ft 462 kts 287°
2026-05-07 07:57 42.56708 30.50783 38155 ft 462 kts 287°
2026-05-07 07:57 42.58228 30.42323 38159 ft 461 kts 287°
2026-05-07 07:58 42.59731 30.33920 38159 ft 461 kts 287°
2026-05-07 07:58 42.61908 30.25813 38161 ft 455 kts 300°
2026-05-07 07:59 42.65412 30.18702 38160 ft 453 kts 308°
2026-05-07 07:59 42.69241 30.11913 38164 ft 452 kts 309°
2026-05-07 08:00 42.73107 30.05170 38164 ft 452 kts 309°
2026-05-07 08:00 42.76954 29.98404 38167 ft 452 kts 309°
2026-05-07 08:01 42.80780 29.91623 38167 ft 451 kts 308°
2026-05-07 08:01 42.84593 29.84836 38164 ft 451 kts 308°
2026-05-07 08:02 42.88400 29.78044 38162 ft 451 kts 308°
2026-05-07 08:02 42.92206 29.71240 38156 ft 451 kts 308°
2026-05-07 08:03 42.95980 29.64479 38171 ft 450 kts 308°
2026-05-07 08:03 42.99774 29.57667 38164 ft 451 kts 308°
2026-05-07 08:04 43.03571 29.50835 38168 ft 451 kts 308°
2026-05-07 08:04 43.07362 29.43996 38167 ft 451 kts 308°
2026-05-07 08:05 43.11147 29.37152 38162 ft 451 kts 308°
2026-05-07 08:05 43.14934 29.30289 38167 ft 451 kts 308°
2026-05-07 08:06 43.18709 29.23433 38169 ft 451 kts 308°
2026-05-07 08:06 43.22486 29.16557 38165 ft 451 kts 308°
2026-05-07 08:07 43.26232 29.09720 38165 ft 451 kts 307°
2026-05-07 08:07 43.29999 29.02830 38165 ft 451 kts 307°
2026-05-07 08:08 43.33760 28.95935 38154 ft 451 kts 307°
2026-05-07 08:08 43.37519 28.89026 38161 ft 452 kts 307°
2026-05-07 08:09 43.41278 28.82101 38154 ft 452 kts 307°
2026-05-07 08:09 43.45037 28.75162 38146 ft 452 kts 307°
2026-05-07 08:10 43.48793 28.68210 38138 ft 452 kts 307°
2026-05-07 08:10 43.52554 28.61233 38139 ft 453 kts 307°
2026-05-07 08:11 43.56285 28.54296 38128 ft 453 kts 307°
2026-05-07 08:11 43.60036 28.47303 38124 ft 454 kts 307°
2026-05-07 08:12 43.63787 28.40295 38127 ft 454 kts 307°
2026-05-07 08:12 43.67539 28.33267 38116 ft 455 kts 307°
2026-05-07 08:13 43.71290 28.26226 38114 ft 455 kts 306°
2026-05-07 08:13 43.75038 28.19172 38116 ft 455 kts 306°
2026-05-07 08:14 43.78779 28.12115 38115 ft 454 kts 306°
2026-05-07 08:14 43.82519 28.05044 38119 ft 456 kts 306°
2026-05-07 08:15 43.86270 27.97933 38121 ft 457 kts 306°
2026-05-07 08:15 43.90016 27.90815 38103 ft 457 kts 306°
2026-05-07 08:16 43.93752 27.83699 38103 ft 456 kts 306°
2026-05-07 08:16 43.97480 27.76579 38103 ft 456 kts 306°
2026-05-07 08:17 44.01202 27.69456 38097 ft 456 kts 306°
2026-05-07 08:17 44.04918 27.62324 38081 ft 455 kts 306°
2026-05-07 08:18 44.08612 27.55219 38104 ft 452 kts 306°
2026-05-07 08:18 44.12292 27.48123 38096 ft 452 kts 306°
2026-05-07 08:19 44.15943 27.41065 38072 ft 452 kts 306°
2026-05-07 08:19 44.19611 27.33959 38092 ft 451 kts 306°
2026-05-07 08:20 44.23260 27.26870 38076 ft 450 kts 306°
2026-05-07 08:20 44.26916 27.19752 38091 ft 452 kts 306°
2026-05-07 08:21 44.30575 27.12609 38097 ft 452 kts 306°
2026-05-07 08:21 44.34226 27.05466 38082 ft 451 kts 305°
2026-05-07 08:22 44.37854 26.98349 38082 ft 449 kts 305°
2026-05-07 08:22 44.41474 26.91230 38084 ft 449 kts 305°
2026-05-07 08:23 44.45085 26.84111 38083 ft 449 kts 305°
2026-05-07 08:23 44.48694 26.76980 38085 ft 449 kts 305°
2026-05-07 08:24 44.52276 26.69883 38073 ft 449 kts 305°
2026-05-07 08:24 44.55878 26.62731 38075 ft 449 kts 305°
2026-05-07 08:25 44.59315 26.55429 38075 ft 449 kts 298°
2026-05-07 08:25 44.62080 26.47591 38076 ft 447 kts 295°
2026-05-07 08:26 44.66010 26.35710 38070 ft 447 kts 295°
2026-05-07 08:26 44.68614 26.27775 38062 ft 448 kts 295°
2026-05-07 08:27 44.71233 26.19804 38081 ft 449 kts 295°
2026-05-07 08:27 44.73850 26.11830 38084 ft 448 kts 295°
2026-05-07 08:28 44.76456 26.03868 38071 ft 448 kts 295°
2026-05-07 08:28 44.79055 25.95902 38068 ft 448 kts 295°
2026-05-07 08:29 44.81631 25.87982 38074 ft 448 kts 294°
2026-05-07 08:29 44.84222 25.79992 38076 ft 447 kts 294°
2026-05-07 08:30 44.86801 25.72015 38071 ft 447 kts 294°
2026-05-07 08:30 44.89375 25.64027 38074 ft 447 kts 294°
2026-05-07 08:31 44.91943 25.56037 38065 ft 447 kts 294°
2026-05-07 08:31 44.94505 25.48036 38070 ft 447 kts 293°
2026-05-07 08:32 44.97064 25.40023 38067 ft 447 kts 293°
2026-05-07 08:32 44.99616 25.32007 38065 ft 447 kts 293°
2026-05-07 08:33 45.01972 25.23872 38067 ft 447 kts 290°
2026-05-07 08:33 45.04170 25.15684 38066 ft 449 kts 290°
2026-05-07 08:34 45.06403 25.07432 38068 ft 449 kts 290°
2026-05-07 08:34 45.08661 24.99199 38060 ft 449 kts 290°
2026-05-07 08:35 45.10927 24.90958 38064 ft 449 kts 290°
2026-05-07 08:35 45.13194 24.82688 38059 ft 451 kts 290°
2026-05-07 08:36 45.15462 24.74379 38066 ft 452 kts 290°
2026-05-07 08:36 45.17723 24.66069 38069 ft 452 kts 290°
2026-05-07 08:37 45.19977 24.57750 38062 ft 452 kts 290°
2026-05-07 08:37 45.22233 24.49395 38068 ft 455 kts 290°
2026-05-07 08:38 45.24111 24.42415 38061 ft 456 kts 290°
2026-05-07 08:38 45.26370 24.33996 38062 ft 456 kts 290°
2026-05-07 08:39 45.28621 24.25578 38063 ft 456 kts 290°
2026-05-07 08:39 45.30867 24.17146 38069 ft 457 kts 289°
2026-05-07 08:40 45.33101 24.08730 38047 ft 458 kts 289°
2026-05-07 08:40 45.35347 24.00245 38068 ft 458 kts 289°
2026-05-07 08:41 45.37582 23.91765 38052 ft 458 kts 289°
2026-05-07 08:41 45.39817 23.83256 38061 ft 460 kts 289°
2026-05-07 08:42 45.42037 23.74770 38059 ft 460 kts 289°
2026-05-07 08:42 45.44264 23.66228 38058 ft 460 kts 289°
2026-05-07 08:43 45.46486 23.57677 38076 ft 460 kts 289°
2026-05-07 08:43 45.48703 23.49114 38068 ft 460 kts 288°
2026-05-07 08:44 45.50906 23.40569 38059 ft 460 kts 288°
2026-05-07 08:44 45.53108 23.31996 38068 ft 460 kts 289°
2026-05-07 08:45 45.55304 23.23417 38048 ft 460 kts 288°
2026-05-07 08:45 45.57496 23.14820 38067 ft 462 kts 288°
2026-05-07 08:46 45.59693 23.06172 38051 ft 464 kts 288°
2026-05-07 08:46 45.61891 22.97495 38051 ft 464 kts 288°
2026-05-07 08:47 45.64083 22.88805 38048 ft 465 kts 288°
2026-05-07 08:47 45.66265 22.80121 38047 ft 464 kts 288°
2026-05-07 08:48 45.68422 22.71503 38049 ft 463 kts 288°
2026-05-07 08:48 45.70582 22.62842 38050 ft 462 kts 288°
2026-05-07 08:49 45.72735 22.54170 38050 ft 462 kts 288°
2026-05-07 08:49 45.74881 22.45491 38049 ft 462 kts 287°
2026-05-07 08:50 45.77017 22.36826 38050 ft 461 kts 287°
2026-05-07 08:50 45.79146 22.28158 38050 ft 461 kts 287°
2026-05-07 08:51 45.81269 22.19476 38053 ft 461 kts 287°
2026-05-07 08:51 45.83386 22.10789 38052 ft 461 kts 287°
2026-05-07 08:52 45.85495 22.02099 38053 ft 461 kts 287°
2026-05-07 08:52 45.87596 21.93407 38051 ft 461 kts 287°
2026-05-07 08:53 45.89693 21.84700 38050 ft 461 kts 287°
2026-05-07 08:53 45.91769 21.76047 38050 ft 460 kts 286°
2026-05-07 08:54 45.93850 21.67337 38051 ft 459 kts 286°
2026-05-07 08:54 45.95919 21.58642 38047 ft 459 kts 286°
2026-05-07 08:55 45.97981 21.49943 38046 ft 459 kts 286°
2026-05-07 08:55 46.00023 21.41295 38050 ft 459 kts 285°
2026-05-07 08:56 46.02074 21.32577 38047 ft 460 kts 285°
2026-05-07 08:56 46.04116 21.23857 38046 ft 460 kts 285°
2026-05-07 08:57 46.06153 21.15130 38047 ft 460 kts 285°
2026-05-07 08:57 46.08185 21.06390 38051 ft 460 kts 285°
2026-05-07 08:58 46.10206 20.97658 38044 ft 460 kts 284°
2026-05-07 08:58 46.12222 20.88913 38038 ft 460 kts 284°
2026-05-07 08:59 46.14229 20.80171 38037 ft 459 kts 284°
2026-05-07 08:59 46.16219 20.71470 38033 ft 460 kts 284°
2026-05-07 09:00 46.18294 20.62742 38033 ft 461 kts 285°
2026-05-07 09:00 46.20475 20.54029 38031 ft 461 kts 285°
2026-05-07 09:01 46.22643 20.45321 38029 ft 461 kts 285°
2026-05-07 09:01 46.24786 20.36595 38037 ft 461 kts 285°
2026-05-07 09:02 46.26917 20.27843 38027 ft 463 kts 285°
2026-05-07 09:02 46.29052 20.19031 38026 ft 464 kts 285°
2026-05-07 09:03 46.31184 20.10211 38028 ft 464 kts 285°
2026-05-07 09:03 46.33292 20.01455 38025 ft 464 kts 285°
2026-05-07 09:04 46.35407 19.92635 38018 ft 464 kts 285°
2026-05-07 09:04 46.37514 19.83810 38020 ft 464 kts 285°
2026-05-07 09:05 46.39618 19.74964 38020 ft 464 kts 285°
2026-05-07 09:05 46.41711 19.66125 38019 ft 464 kts 285°
2026-05-07 09:06 46.43799 19.57278 38015 ft 464 kts 284°
2026-05-07 09:06 46.45879 19.48424 38008 ft 464 kts 284°
2026-05-07 09:07 46.47952 19.39567 38007 ft 464 kts 284°
2026-05-07 09:07 46.50021 19.30689 38007 ft 464 kts 284°
2026-05-07 09:08 46.52068 19.21873 38006 ft 464 kts 284°
2026-05-07 09:08 46.54119 19.13003 38006 ft 463 kts 284°
2026-05-07 09:09 46.56164 19.04120 38004 ft 463 kts 284°
2026-05-07 09:09 46.58202 18.95232 38004 ft 463 kts 284°
2026-05-07 09:10 46.60233 18.86336 38006 ft 463 kts 284°
2026-05-07 09:10 46.62257 18.77436 38003 ft 464 kts 284°
2026-05-07 09:11 46.64264 18.68575 38004 ft 463 kts 284°
2026-05-07 09:11 46.66273 18.59666 38002 ft 463 kts 284°
2026-05-07 09:12 46.68280 18.50722 38005 ft 463 kts 283°
2026-05-07 09:12 46.70278 18.41786 37998 ft 464 kts 283°
2026-05-07 09:13 46.72273 18.32830 38001 ft 464 kts 283°
2026-05-07 09:13 46.74257 18.23880 37997 ft 464 kts 283°
2026-05-07 09:14 46.76224 18.14975 38011 ft 464 kts 283°
2026-05-07 09:14 46.78195 18.06008 37990 ft 464 kts 283°
2026-05-07 09:15 46.80164 17.97016 37992 ft 465 kts 283°
2026-05-07 09:15 46.82122 17.88035 37974 ft 464 kts 283°
2026-05-07 09:16 46.84074 17.79038 38009 ft 464 kts 283°
2026-05-07 09:16 46.86021 17.70028 37986 ft 465 kts 283°
2026-05-07 09:17 46.87961 17.61011 37987 ft 465 kts 283°
2026-05-07 09:17 46.89895 17.51981 37986 ft 465 kts 283°
2026-05-07 09:18 46.91808 17.43010 37985 ft 465 kts 282°
2026-05-07 09:18 46.93731 17.33956 37986 ft 467 kts 282°
2026-05-07 09:19 46.95652 17.24867 37982 ft 468 kts 282°
2026-05-07 09:19 46.97568 17.15764 37982 ft 468 kts 282°
2026-05-07 09:20 46.99477 17.06653 37975 ft 468 kts 282°
2026-05-07 09:20 47.01375 16.97552 37976 ft 466 kts 282°
2026-05-07 09:21 47.03261 16.88473 37974 ft 465 kts 282°
2026-05-07 09:21 47.05138 16.79395 37974 ft 465 kts 282°
2026-05-07 09:22 47.07008 16.70299 37974 ft 465 kts 282°
2026-05-07 09:22 47.08860 16.61259 37962 ft 465 kts 282°
2026-05-07 09:23 47.10712 16.52178 37971 ft 464 kts 282°
2026-05-07 09:23 47.12558 16.43086 37969 ft 464 kts 282°
2026-05-07 09:24 47.14546 16.34041 37980 ft 468 kts 287°
2026-05-07 09:24 47.17056 16.25204 37967 ft 469 kts 288°
2026-05-07 09:25 47.19624 16.16514 37966 ft 469 kts 288°
2026-05-07 09:25 47.22227 16.07720 37966 ft 469 kts 288°
2026-05-07 09:26 47.24814 15.98912 37965 ft 469 kts 288°
2026-05-07 09:26 47.27390 15.90082 37992 ft 469 kts 288°
2026-05-07 09:27 47.29959 15.81233 37965 ft 471 kts 288°
2026-05-07 09:28 47.33383 15.69393 37966 ft 472 kts 288°
2026-05-07 09:28 47.35948 15.60490 37965 ft 472 kts 288°
2026-05-07 09:29 47.38507 15.51580 37971 ft 472 kts 288°
2026-05-07 09:29 47.41071 15.42615 37960 ft 476 kts 288°
2026-05-07 09:30 47.43639 15.33609 37959 ft 476 kts 288°
2026-05-07 09:30 47.46201 15.24588 37967 ft 476 kts 288°
2026-05-07 09:31 47.48759 15.15540 37985 ft 476 kts 288°
2026-05-07 09:31 47.51304 15.06513 37966 ft 476 kts 288°
2026-05-07 09:32 47.53843 14.97474 37968 ft 475 kts 288°
2026-05-07 09:32 47.56354 14.88491 37969 ft 475 kts 288°
2026-05-07 09:33 47.58879 14.79428 37995 ft 475 kts 288°
2026-05-07 09:33 47.61390 14.70371 37974 ft 476 kts 287°
2026-05-07 09:33 47.62648 14.65845 37818 ft 474 kts 287°
2026-05-07 09:34 47.63890 14.61388 37716 ft 460 kts 287°
2026-05-07 09:34 47.65095 14.57046 37388 ft 453 kts 287°
2026-05-07 09:34 47.66289 14.52702 36669 ft 455 kts 286°
2026-05-07 09:34 47.67478 14.48355 36043 ft 454 kts 285°
2026-05-07 09:35 47.68663 14.44017 35418 ft 454 kts 285°
2026-05-07 09:35 47.69848 14.39667 34800 ft 455 kts 285°
2026-05-07 09:35 47.71039 14.35296 34091 ft 458 kts 284°
2026-05-07 09:35 47.72236 14.30893 33270 ft 461 kts 284°
2026-05-07 09:36 47.73437 14.26476 32529 ft 462 kts 283°
2026-05-07 09:36 47.74636 14.22075 32026 ft 457 kts 283°
2026-05-07 09:36 47.75820 14.17727 31507 ft 452 kts 283°
2026-05-07 09:36 47.76995 14.13402 31016 ft 449 kts 283°
2026-05-07 09:37 47.78156 14.09109 30485 ft 447 kts 283°
2026-05-07 09:37 47.79310 14.04825 29957 ft 444 kts 283°
2026-05-07 09:37 47.80457 14.00563 29396 ft 442 kts 283°
2026-05-07 09:37 47.81594 13.96337 28880 ft 438 kts 283°
2026-05-07 09:38 47.82718 13.92151 28389 ft 433 kts 284°
2026-05-07 09:38 47.83829 13.88007 27891 ft 429 kts 284°
2026-05-07 09:38 47.84927 13.83903 27412 ft 425 kts 284°
2026-05-07 09:38 47.86016 13.79825 26916 ft 421 kts 284°
2026-05-07 09:39 47.87090 13.75791 26436 ft 417 kts 284°
2026-05-07 09:39 47.88153 13.71792 25967 ft 414 kts 284°
2026-05-07 09:39 47.89207 13.67814 25481 ft 410 kts 284°
2026-05-07 09:39 47.90238 13.63916 25012 ft 407 kts 285°
2026-05-07 09:40 47.91272 13.59999 24549 ft 405 kts 285°
2026-05-07 09:40 47.92299 13.56111 24057 ft 402 kts 286°
2026-05-07 09:40 47.93319 13.52243 23582 ft 399 kts 286°
2026-05-07 09:40 47.94329 13.48402 23048 ft 396 kts 286°
2026-05-07 09:41 47.95328 13.44599 22578 ft 392 kts 287°
2026-05-07 09:41 47.96316 13.40835 22092 ft 388 kts 287°
2026-05-07 09:41 47.97293 13.37107 21631 ft 384 kts 287°
2026-05-07 09:41 47.98259 13.33410 21143 ft 381 kts 287°
2026-05-07 09:42 47.99216 13.29746 20686 ft 378 kts 287°
2026-05-07 09:42 48.00164 13.26105 20236 ft 375 kts 287°
2026-05-07 09:42 48.01105 13.22486 19746 ft 373 kts 288°
2026-05-07 09:42 48.02041 13.18883 19275 ft 371 kts 288°
2026-05-07 09:43 48.02969 13.15302 18804 ft 368 kts 288°
2026-05-07 09:43 48.03890 13.11745 18331 ft 366 kts 288°
2026-05-07 09:43 48.04808 13.08199 17817 ft 364 kts 288°
2026-05-07 09:43 48.05716 13.04684 17352 ft 362 kts 288°
2026-05-07 09:44 48.06621 13.01173 16873 ft 360 kts 288°
2026-05-07 09:44 48.07516 12.97698 16410 ft 357 kts 288°
2026-05-07 09:44 48.08406 12.94233 15961 ft 355 kts 288°
2026-05-07 09:44 48.09063 12.90713 15572 ft 348 kts 278°
2026-05-07 09:45 48.09474 12.87220 15175 ft 344 kts 277°
2026-05-07 09:45 48.09839 12.83692 14729 ft 342 kts 276°
2026-05-07 09:45 48.10185 12.80184 14283 ft 340 kts 275°
2026-05-07 09:45 48.10521 12.76695 13840 ft 338 kts 275°
2026-05-07 09:46 48.10851 12.73226 13360 ft 335 kts 275°
2026-05-07 09:46 48.11176 12.69793 12921 ft 332 kts 275°
2026-05-07 09:46 48.11495 12.66388 12488 ft 328 kts 275°
2026-05-07 09:46 48.11809 12.63023 12057 ft 325 kts 275°
2026-05-07 09:47 48.12118 12.59694 11628 ft 322 kts 275°
2026-05-07 09:47 48.12421 12.56440 11470 ft 309 kts 275°
2026-05-07 09:47 48.12709 12.53331 11350 ft 295 kts 275°
2026-05-07 09:47 48.12983 12.50361 11245 ft 282 kts 275°
2026-05-07 09:48 48.13244 12.47520 11122 ft 270 kts 275°
2026-05-07 09:48 48.13494 12.44789 11003 ft 260 kts 275°
2026-05-07 09:48 48.13735 12.42141 10799 ft 254 kts 275°
2026-05-07 09:48 48.13971 12.39531 10518 ft 252 kts 275°
2026-05-07 09:49 48.14205 12.36932 10236 ft 251 kts 275°
2026-05-07 09:49 48.14436 12.34379 9958 ft 250 kts 275°
2026-05-07 09:49 48.14647 12.31723 9877 ft 264 kts 273°
2026-05-07 09:49 48.14832 12.28955 9768 ft 269 kts 273°
2026-05-07 09:50 48.15020 12.26163 9554 ft 268 kts 273°
2026-05-07 09:50 48.15209 12.23394 9370 ft 267 kts 273°
2026-05-07 09:50 48.15399 12.20634 9218 ft 266 kts 274°
2026-05-07 09:50 48.15597 12.17890 9069 ft 265 kts 275°
2026-05-07 09:51 48.16189 12.15254 8756 ft 270 kts 294°
2026-05-07 09:51 48.17171 12.12857 8340 ft 271 kts 304°
2026-05-07 09:51 48.18556 12.10939 7934 ft 276 kts 324°
2026-05-07 09:51 48.20387 12.10009 7553 ft 282 kts 349°
2026-05-07 09:52 48.22346 12.09818 7174 ft 282 kts 354°
2026-05-07 09:52 48.24279 12.09760 6809 ft 280 kts 354°
2026-05-07 09:52 48.26216 12.09716 6438 ft 275 kts 354°
2026-05-07 09:52 48.28124 12.09672 5861 ft 272 kts 354°
2026-05-07 09:53 48.29958 12.09631 5651 ft 255 kts 354°
2026-05-07 09:53 48.31672 12.09595 5467 ft 237 kts 354°
2026-05-07 09:53 48.33262 12.09560 5293 ft 221 kts 353°
2026-05-07 09:53 48.34738 12.09525 5124 ft 203 kts 353°
2026-05-07 09:54 48.36114 12.09452 4786 ft 194 kts 348°
2026-05-07 09:54 48.37355 12.08849 4337 ft 183 kts 321°
2026-05-07 09:54 48.38076 12.07432 4051 ft 167 kts 287°
2026-05-07 09:54 48.38333 12.05729 4007 ft 168 kts 276°
2026-05-07 09:55 48.38337 12.03993 4008 ft 162 kts 265°
2026-05-07 09:55 48.38234 12.02392 4009 ft 145 kts 264°
2026-05-07 09:55 48.38127 12.00989 3983 ft 130 kts 264°
2026-05-07 09:55 48.38024 11.99655 3832 ft 128 kts 264°
2026-05-07 09:56 48.37924 11.98313 3646 ft 129 kts 264°
2026-05-07 09:56 48.37823 11.96970 3470 ft 129 kts 264°
2026-05-07 09:56 48.37720 11.95624 3301 ft 130 kts 264°
2026-05-07 09:56 48.37616 11.94268 3118 ft 131 kts 265°
2026-05-07 09:57 48.37511 11.92897 2941 ft 133 kts 265°
2026-05-07 09:57 48.37406 11.91517 2772 ft 132 kts 264°
2026-05-07 09:57 48.37302 11.90154 2565 ft 129 kts 264°
2026-05-07 09:57 48.37200 11.88819 2395 ft 128 kts 264°
2026-05-07 09:58 48.37098 11.87488 2218 ft 129 kts 265°
2026-05-07 09:58 48.36996 11.86147 2037 ft 130 kts 265°
2026-05-07 09:58 48.36894 11.84812 1855 ft 130 kts 264°
2026-05-07 09:58 48.36790 11.83452 1685 ft 133 kts 263°
2026-05-07 09:59 48.36680 11.82068 1530 ft 135 kts 263°
2026-05-07 09:59 48.36577 11.80697 1482 ft 120 kts 264°
2026-05-07 09:59 48.36516 11.79871 1489 ft 44 kts 263°
2026-05-07 09:59 48.36482 11.79436 1484 ft 40 kts 263°
2026-05-07 10:00 48.36437 11.79035 1476 ft 38 kts 250°
2026-05-07 10:00 48.36317 11.78742 1479 ft 25 kts 233°
2026-05-07 10:00 48.36211 11.78525 1477 ft 26 kts 233°
2026-05-07 10:00 48.36123 11.78285 1481 ft 26 kts 261°
2026-05-07 10:01 48.36101 11.78009 1482 ft 27 kts 263°
2026-05-07 10:01 48.36080 11.77725 1483 ft 25 kts 261°
2026-05-07 10:01 48.36052 11.77677 1476 ft 10 kts 207°
2026-05-07 10:01 48.35951 11.77678 1483 ft 16 kts 173°
2026-05-07 10:02 48.35856 11.77695 1483 ft 21 kts 173°
2026-05-07 10:02 48.35664 11.77728 1484 ft 34 kts 173°
2026-05-07 10:02 48.35415 11.77772 1484 ft 24 kts 173°
2026-05-07 10:02 48.35337 11.77897 1491 ft 19 kts 86°
2026-05-07 10:03 48.35349 11.78093 1483 ft 11 kts 97°
2026-05-07 10:03 48.35325 11.78151 1483 ft 0 kts 140°
2026-05-07 10:04 48.35324 11.78152 1483 ft 2 kts 139°
2026-05-07 10:04 48.35280 11.78178 1476 ft 9 kts 143°
2026-05-07 10:05 48.35275 11.78276 1481 ft 13 kts 83°
2026-05-07 10:05 48.35278 11.78319 1479 ft 0 kts 83°